| time (UTC) | temp F | wind direction | speed MPH | gust MPH | rain 1hr in | rain 24hr in | rain mn in | humidity % | barometer mb |
| 20260903141403 | 71 | 254 | 7.0 | 10.0 | 0.00 | 0.01 | 0.00 | 64 | |
| 20260903141303 | 71 | 255 | 7.0 | 10.0 | 0.00 | 0.01 | 0.00 | 64 | |
| 20260903141203 | 71 | 257 | 7.0 | 11.0 | 0.00 | 0.01 | 0.00 | 65 | |
| 20260903141103 | 71 | 260 | 7.0 | 11.0 | 0.00 | 0.01 | 0.00 | 65 | |
| 20260903141003 | 71 | 263 | 7.0 | 11.0 | 0.00 | 0.01 | 0.00 | 65 | |
| 20260903140903 | 71 | 267 | 7.0 | 11.0 | 0.00 | 0.01 | 0.00 | 65 | |
| 20260903140803 | 70 | 269 | 7.0 | 11.0 | 0.00 | 0.01 | 0.00 | 64 | |
| 20260903140703 | 70 | 271 | 7.0 | 11.0 | 0.00 | 0.01 | 0.00 | 65 | |
| 20260903140604 | 70 | 274 | 7.0 | 11.0 | 0.00 | 0.01 | 0.00 | 64 | |
| 20260903140503 | 70 | 275 | 8.0 | 12.0 | 0.00 | 0.01 | 0.00 | 64 | |
| 20260903140403 | 71 | 277 | 8.0 | 15.0 | 0.00 | 0.01 | 0.00 | 64 | |
| 20260903140303 | 71 | 280 | 9.0 | 15.0 | 0.00 | 0.01 | 0.00 | 64 | |
| 20260903140224 | 71 | 281 | 9.0 | 15.0 | 0.00 | 0.01 | 0.00 | 64 | |
| 20260903140003 | 71 | 283 | 9.0 | 16.0 | 0.00 | 0.01 | 0.00 | 64 | |
| 20260903135903 | 71 | 281 | 9.0 | 16.0 | 0.00 | 0.01 | 0.00 | 64 | |
| 20260903135824 | 71 | 281 | 9.0 | 16.0 | 0.00 | 0.01 | 0.00 | 64 | |
| 20260903135703 | 71 | 280 | 10.0 | 16.0 | 0.00 | 0.01 | 0.00 | 63 | |
| 20260903135603 | 71 | 278 | 10.0 | 16.0 | 0.00 | 0.01 | 0.00 | 63 | |
| 20260903135503 | 71 | 276 | 10.0 | 16.0 | 0.00 | 0.01 | 0.00 | 62 | |
| 20260903135403 | 71 | 273 | 10.0 | 18.0 | 0.00 | 0.01 | 0.00 | 63 | |
| 20260903135306 | 71 | 271 | 10.0 | 18.0 | 0.00 | 0.01 | 0.00 | 63 | |
| 20260903135204 | 71 | 269 | 9.0 | 18.0 | 0.00 | 0.01 | 0.00 | 63 | |
| 20260903135103 | 71 | 266 | 10.0 | 18.0 | 0.00 | 0.01 | 0.00 | 64 | |
| 20260903135003 | 71 | 268 | 10.0 | 18.0 | 0.00 | 0.01 | 0.00 | 64 | |
| 20260903134924 | 71 | 268 | 10.0 | 18.0 | 0.00 | 0.01 | 0.00 | 64 | |
| 20260903134803 | 71 | 268 | 11.0 | 18.0 | 0.00 | 0.01 | 0.00 | 64 | |
| 20260903134703 | 71 | 271 | 11.0 | 18.0 | 0.00 | 0.01 | 0.00 | 63 | |
| 20260903134603 | 71 | 273 | 11.0 | 18.0 | 0.00 | 0.01 | 0.00 | 64 | |
| 20260903134503 | 71 | 276 | 11.0 | 18.0 | 0.00 | 0.01 | 0.00 | 66 | |
| 20260903134403 | 70 | 275 | 11.0 | 18.0 | 0.00 | 0.01 | 0.00 | 64 | |
| 20260903134303 | 70 | 274 | 12.0 | 18.0 | 0.00 | 0.01 | 0.00 | 64 | |
| 20260903134203 | 70 | 274 | 12.0 | 19.0 | 0.00 | 0.01 | 0.00 | 64 | |
| 20260903134103 | 70 | 274 | 12.0 | 19.0 | 0.00 | 0.01 | 0.00 | 64 | |
| 20260903134003 | 70 | 273 | 12.0 | 19.0 | 0.00 | 0.01 | 0.00 | 64 | |
| 20260903133903 | 70 | 274 | 12.0 | 21.0 | 0.00 | 0.01 | 0.00 | 64 | |
| 20260903133803 | 70 | 274 | 12.0 | 21.0 | 0.00 | 0.01 | 0.00 | 64 | |
| 20260903133703 | 70 | 272 | 12.0 | 21.0 | 0.00 | 0.01 | 0.00 | 64 | |
| 20260903133603 | 70 | 271 | 12.0 | 21.0 | 0.00 | 0.01 | 0.00 | 64 | |
| 20260903133503 | 70 | 270 | 12.0 | 21.0 | 0.00 | 0.01 | 0.00 | 63 | |
| 20260903133403 | 70 | 270 | 12.0 | 21.0 | 0.00 | 0.01 | 0.00 | 63 | |
| 20260903133303 | 70 | 270 | 12.0 | 21.0 | 0.00 | 0.01 | 0.00 | 64 | |
| 20260903133203 | 70 | 270 | 13.0 | 21.0 | 0.00 | 0.01 | 0.00 | 64 | |
| 20260903133103 | 70 | 272 | 13.0 | 21.0 | 0.00 | 0.01 | 0.00 | 63 | |
| 20260903133003 | 70 | 273 | 13.0 | 22.0 | 0.00 | 0.01 | 0.00 | 63 | |
| 20260903132903 | 70 | 273 | 13.0 | 22.0 | 0.00 | 0.01 | 0.00 | 64 | |
| 20260903132803 | 70 | 274 | 13.0 | 22.0 | 0.00 | 0.01 | 0.00 | 64 | |
| 20260903132703 | 70 | 275 | 13.0 | 22.0 | 0.00 | 0.01 | 0.00 | 64 | |
| 20260903132603 | 70 | 276 | 14.0 | 22.0 | 0.00 | 0.01 | 0.00 | 63 | |
| 20260903132503 | 70 | 276 | 13.0 | 22.0 | 0.00 | 0.01 | 0.00 | 63 | |
| 20260903132403 | 70 | 276 | 13.0 | 22.0 | 0.00 | 0.01 | 0.00 | 63 | |
| 20260903132306 | 70 | 277 | 13.0 | 22.0 | 0.00 | 0.01 | 0.00 | 63 | |
| 20260903132203 | 70 | 276 | 13.0 | 22.0 | 0.00 | 0.01 | 0.00 | 63 | |
| 20260903132103 | 70 | 274 | 13.0 | 22.0 | 0.00 | 0.01 | 0.00 | 62 | |
| 20260903132003 | 70 | 272 | 13.0 | 22.0 | 0.00 | 0.01 | 0.00 | 64 | |
| 20260903131903 | 70 | 271 | 13.0 | 22.0 | 0.00 | 0.01 | 0.00 | 63 | |
| 20260903131825 | 70 | 270 | 13.0 | 22.0 | 0.00 | 0.01 | 0.00 | 63 | |
| 20260903131704 | 70 | 271 | 13.0 | 22.0 | 0.00 | 0.01 | 0.00 | 63 | |
| 20260903131603 | 70 | 270 | 13.0 | 22.0 | 0.00 | 0.01 | 0.00 | 64 | |
| 20260903131504 | 70 | 274 | 14.0 | 21.0 | 0.00 | 0.01 | 0.00 | 64 | |
| 20260903131403 | 70 | 276 | 14.0 | 23.0 | 0.00 | 0.01 | 0.00 | 64 | |
| 20260903131303 | 69 | 275 | 14.0 | 23.0 | 0.00 | 0.01 | 0.00 | 64 | |
| 20260903131203 | 69 | 278 | 14.0 | 23.0 | 0.00 | 0.01 | 0.00 | 64 | |
| 20260903131103 | 69 | 280 | 14.0 | 23.0 | 0.00 | 0.01 | 0.00 | 64 | |
| 20260903131003 | 69 | 282 | 15.0 | 24.0 | 0.00 | 0.01 | 0.00 | 65 | |
| 20260903130903 | 69 | 283 | 15.0 | 25.0 | 0.00 | 0.01 | 0.00 | 65 | |
| 20260903130803 | 69 | 285 | 15.0 | 25.0 | 0.00 | 0.01 | 0.00 | 64 | |
| 20260903130703 | 69 | 284 | 15.0 | 25.0 | 0.00 | 0.01 | 0.00 | 64 | |
| 20260903130604 | 69 | 284 | 15.0 | 25.0 | 0.00 | 0.01 | 0.00 | 64 | |
| 20260903130503 | 69 | 282 | 14.0 | 25.0 | 0.00 | 0.01 | 0.00 | 63 | |
| 20260903130403 | 69 | 281 | 14.0 | 25.0 | 0.00 | 0.01 | 0.00 | 63 | |
| 20260903130303 | 69 | 281 | 14.0 | 25.0 | 0.00 | 0.01 | 0.00 | 63 | |
| 20260903130203 | 70 | 279 | 14.0 | 25.0 | 0.00 | 0.01 | 0.00 | 63 | |
| 20260903130003 | 70 | 275 | 13.0 | 25.0 | 0.00 | 0.01 | 0.00 | 63 | |
| 20260903125904 | 70 | 272 | 13.0 | 23.0 | 0.00 | 0.01 | 0.00 | 64 | |
| 20260903125803 | 70 | 269 | 13.0 | 23.0 | 0.00 | 0.01 | 0.00 | 64 | |
| 20260903125703 | 70 | 269 | 14.0 | 23.0 | 0.00 | 0.01 | 0.00 | 63 | |
| 20260903125603 | 70 | 268 | 14.0 | 25.0 | 0.00 | 0.01 | 0.00 | 63 | |
| 20260903125503 | 70 | 268 | 15.0 | 25.0 | 0.00 | 0.01 | 0.00 | 63 | |
| 20260903125403 | 70 | 265 | 15.0 | 26.0 | 0.00 | 0.01 | 0.00 | 63 | |
| 20260903125305 | 70 | 262 | 16.0 | 26.0 | 0.00 | 0.01 | 0.00 | 62 | |
| 20260903125203 | 70 | 261 | 16.0 | 26.0 | 0.00 | 0.01 | 0.00 | 63 | |
| 20260903125103 | 70 | 261 | 16.0 | 26.0 | 0.00 | 0.01 | 0.00 | 63 | |
| 20260903125003 | 70 | 260 | 16.0 | 26.0 | 0.00 | 0.01 | 0.00 | 64 | |
| 20260903124924 | 70 | 259 | 16.0 | 26.0 | 0.00 | 0.01 | 0.00 | 64 | |
| 20260903124803 | 70 | 259 | 16.0 | 26.0 | 0.00 | 0.01 | 0.00 | 63 | |
| 20260903124703 | 70 | 257 | 16.0 | 26.0 | 0.00 | 0.01 | 0.00 | 63 | |
| 20260903124624 | 70 | 257 | 16.0 | 26.0 | 0.00 | 0.01 | 0.00 | 63 | |
| 20260903124503 | 70 | 258 | 16.0 | 26.0 | 0.00 | 0.01 | 0.00 | 64 | |
| 20260903124424 | 70 | 259 | 16.0 | 26.0 | 0.00 | 0.01 | 0.00 | 64 | |
| 20260903124303 | 70 | 262 | 15.0 | 26.0 | 0.00 | 0.01 | 0.00 | 63 | |
| 20260903124203 | 70 | 263 | 15.0 | 26.0 | 0.00 | 0.01 | 0.00 | 62 | |
| 20260903124103 | 70 | 265 | 15.0 | 23.0 | 0.00 | 0.01 | 0.00 | 64 | |
| 20260903124003 | 70 | 266 | 15.0 | 24.0 | 0.00 | 0.01 | 0.00 | 63 | |
| 20260903123904 | 70 | 268 | 15.0 | 24.0 | 0.00 | 0.01 | 0.00 | 64 | |
| 20260903123803 | 69 | 269 | 16.0 | 24.0 | 0.00 | 0.01 | 0.00 | 63 | |
| 20260903123703 | 69 | 270 | 16.0 | 24.0 | 0.00 | 0.01 | 0.00 | 63 | |
| 20260903123603 | 69 | 268 | 16.0 | 25.0 | 0.00 | 0.01 | 0.00 | 64 | |
| 20260903123503 | 69 | 268 | 16.0 | 25.0 | 0.00 | 0.01 | 0.00 | 64 | |
| 20260903123424 | 69 | 269 | 16.0 | 25.0 | 0.00 | 0.01 | 0.00 | 64 | |
| 20260903123303 | 69 | 270 | 16.0 | 25.0 | 0.00 | 0.01 | 0.00 | 63 | |
| 20260903123203 | 69 | 272 | 15.0 | 25.0 | 0.00 | 0.01 | 0.00 | 64 | |
| 20260903123103 | 69 | 271 | 15.0 | 25.0 | 0.00 | 0.01 | 0.00 | 64 | |
| 20260903123003 | 69 | 271 | 15.0 | 25.0 | 0.00 | 0.01 | 0.00 | 65 | |
| 20260903122903 | 69 | 270 | 15.0 | 25.0 | 0.00 | 0.01 | 0.00 | 64 | |
| 20260903122803 | 69 | 268 | 15.0 | 25.0 | 0.00 | 0.01 | 0.00 | 64 | |
| 20260903122703 | 69 | 267 | 15.0 | 25.0 | 0.00 | 0.01 | 0.00 | 65 | |
| 20260903122603 | 70 | 268 | 14.0 | 21.0 | 0.00 | 0.01 | 0.00 | 66 | |
| 20260903122524 | 70 | 268 | 14.0 | 21.0 | 0.00 | 0.01 | 0.00 | 66 | |
| 20260903122424 | 70 | 267 | 14.0 | 21.0 | 0.00 | 0.01 | 0.00 | 67 | |
| 20260903122305 | 70 | 264 | 15.0 | 22.0 | 0.00 | 0.01 | 0.00 | 66 | |
| 20260903122203 | 70 | 263 | 15.0 | 22.0 | 0.00 | 0.01 | 0.00 | 65 | |
| 20260903122103 | 70 | 266 | 15.0 | 24.0 | 0.00 | 0.01 | 0.00 | 66 | |
| 20260903122003 | 70 | 268 | 15.0 | 24.0 | 0.00 | 0.01 | 0.00 | 66 | |
| 20260903121903 | 70 | 269 | 15.0 | 24.0 | 0.00 | 0.01 | 0.00 | 66 | |
| 20260903121803 | 70 | 270 | 15.0 | 24.0 | 0.00 | 0.01 | 0.00 | 66 | |
| 20260903121724 | 70 | 270 | 15.0 | 24.0 | 0.00 | 0.01 | 0.00 | 66 | |
| 20260903121603 | 69 | 272 | 15.0 | 24.0 | 0.00 | 0.01 | 0.00 | 67 | |
| 20260903121503 | 69 | 273 | 15.0 | 24.0 | 0.00 | 0.01 | 0.00 | 67 | |
| 20260903121403 | 69 | 275 | 15.0 | 25.0 | 0.00 | 0.01 | 0.00 | 68 | |
| 20260903121303 | 69 | 277 | 16.0 | 28.0 | 0.00 | 0.01 | 0.00 | 67 | |
| 20260903121203 | 69 | 277 | 15.0 | 28.0 | 0.00 | 0.01 | 0.00 | 67 | |
| 20260903121125 | 69 | 275 | 15.0 | 28.0 | 0.00 | 0.01 | 0.00 | 67 | |
| 20260903121003 | 69 | 272 | 14.0 | 28.0 | 0.00 | 0.01 | 0.00 | 67 | |
| 20260903120903 | 69 | 269 | 15.0 | 28.0 | 0.00 | 0.01 | 0.00 | 67 | |
| 20260903120803 | 69 | 267 | 15.0 | 28.0 | 0.00 | 0.01 | 0.00 | 67 | |
| 20260903120703 | 69 | 265 | 15.0 | 28.0 | 0.00 | 0.01 | 0.00 | 67 | |
| 20260903120603 | 69 | 264 | 15.0 | 28.0 | 0.00 | 0.01 | 0.00 | 67 | |
| 20260903120503 | 69 | 262 | 15.0 | 28.0 | 0.00 | 0.01 | 0.00 | 66 | |
| 20260903120403 | 69 | 260 | 15.0 | 28.0 | 0.00 | 0.01 | 0.00 | 68 | |
| 20260903120303 | 69 | 258 | 15.0 | 25.0 | 0.00 | 0.01 | 0.00 | 68 | |
| 20260903120203 | 69 | 257 | 15.0 | 25.0 | 0.00 | 0.01 | 0.00 | 69 | |
| 20260903120003 | 68 | 259 | 15.0 | 25.0 | 0.00 | 0.01 | 0.00 | 69 | |
| 20260903115903 | 68 | 262 | 15.0 | 25.0 | 0.00 | 0.01 | 0.00 | 68 | |
| 20260903115803 | 68 | 265 | 15.0 | 25.0 | 0.00 | 0.01 | 0.00 | 68 | |
| 20260903115703 | 68 | 269 | 15.0 | 25.0 | 0.00 | 0.01 | 0.00 | 69 | |
| 20260903115603 | 68 | 272 | 15.0 | 25.0 | 0.00 | 0.01 | 0.00 | 68 | |
| 20260903115503 | 68 | 275 | 15.0 | 25.0 | 0.00 | 0.01 | 0.00 | 68 | |
| 20260903115404 | 68 | 278 | 15.0 | 25.0 | 0.00 | 0.01 | 0.00 | 68 | |
| 20260903115305 | 69 | 280 | 15.0 | 25.0 | 0.00 | 0.01 | 0.00 | 68 | |
| 20260903115203 | 69 | 284 | 15.0 | 26.0 | 0.00 | 0.01 | 0.00 | 69 | |
| 20260903115124 | 69 | 284 | 15.0 | 26.0 | 0.00 | 0.01 | 0.00 | 69 | |
| 20260903115003 | 69 | 284 | 15.0 | 26.0 | 0.00 | 0.01 | 0.00 | 68 | |
| 20260903114904 | 68 | 284 | 14.0 | 26.0 | 0.00 | 0.01 | 0.00 | 68 | |
| 20260903114824 | 68 | 282 | 14.0 | 26.0 | 0.00 | 0.01 | 0.00 | 68 | |
| 20260903114703 | 68 | 280 | 14.0 | 26.0 | 0.00 | 0.01 | 0.00 | 68 | |
| 20260903114624 | 68 | 278 | 14.0 | 26.0 | 0.00 | 0.01 | 0.00 | 68 | |
| 20260903114503 | 68 | 273 | 14.0 | 26.0 | 0.00 | 0.01 | 0.00 | 68 | |
| 20260903114403 | 68 | 271 | 14.0 | 26.0 | 0.00 | 0.01 | 0.00 | 68 | |
| 20260903114303 | 68 | 270 | 13.0 | 26.0 | 0.00 | 0.01 | 0.00 | 69 | |
| 20260903114203 | 68 | 267 | 13.0 | 23.0 | 0.00 | 0.01 | 0.00 | 68 | |
| 20260903114103 | 68 | 265 | 13.0 | 23.0 | 0.00 | 0.01 | 0.00 | 68 | |
| 20260903114024 | 68 | 264 | 13.0 | 23.0 | 0.00 | 0.01 | 0.00 | 68 | |
| 20260903113924 | 68 | 263 | 14.0 | 23.0 | 0.00 | 0.01 | 0.00 | 68 | |
| 20260903113803 | 68 | 265 | 14.0 | 23.0 | 0.00 | 0.01 | 0.00 | 67 | |
| 20260903113703 | 68 | 265 | 13.0 | 23.0 | 0.00 | 0.01 | 0.00 | 67 | |
| 20260903113603 | 68 | 266 | 13.0 | 23.0 | 0.00 | 0.01 | 0.00 | 67 | |
| 20260903113503 | 68 | 266 | 13.0 | 23.0 | 0.00 | 0.01 | 0.00 | 67 | |
| 20260903113403 | 68 | 264 | 13.0 | 23.0 | 0.00 | 0.01 | 0.00 | 67 | |
| 20260903113303 | 68 | 263 | 13.0 | 23.0 | 0.00 | 0.01 | 0.00 | 66 | |
| 20260903113224 | 68 | 263 | 13.0 | 23.0 | 0.00 | 0.01 | 0.00 | 66 | |
| 20260903113124 | 69 | 263 | 13.0 | 23.0 | 0.00 | 0.01 | 0.00 | 67 | |
| 20260903113024 | 69 | 264 | 13.0 | 23.0 | 0.00 | 0.01 | 0.00 | 67 | |
| 20260903112903 | 69 | 266 | 13.0 | 20.0 | 0.00 | 0.01 | 0.00 | 68 | |
| 20260903112803 | 69 | 267 | 14.0 | 22.0 | 0.00 | 0.01 | 0.00 | 67 | |
| 20260903112703 | 69 | 269 | 14.0 | 23.0 | 0.00 | 0.01 | 0.00 | 67 | |
| 20260903112603 | 69 | 269 | 14.0 | 23.0 | 0.00 | 0.01 | 0.00 | 67 | |
| 20260903112503 | 69 | 269 | 14.0 | 23.0 | 0.00 | 0.01 | 0.00 | 67 | |
| 20260903112403 | 69 | 269 | 14.0 | 23.0 | 0.00 | 0.01 | 0.00 | 68 | |
| 20260903112305 | 69 | 270 | 14.0 | 23.0 | 0.00 | 0.01 | 0.00 | 70 | |
| 20260903112203 | 69 | 271 | 14.0 | 23.0 | 0.00 | 0.01 | 0.00 | 69 | |
| 20260903112103 | 69 | 271 | 14.0 | 23.0 | 0.00 | 0.01 | 0.00 | 70 | |
| 20260903112024 | 69 | 271 | 14.0 | 23.0 | 0.00 | 0.01 | 0.00 | 70 | |
| 20260903111903 | 68 | 269 | 14.0 | 23.0 | 0.00 | 0.01 | 0.00 | 69 | |
| 20260903111803 | 69 | 267 | 14.0 | 23.0 | 0.00 | 0.01 | 0.00 | 68 | |
| 20260903111703 | 69 | 264 | 13.0 | 23.0 | 0.00 | 0.01 | 0.00 | 68 | |
| 20260903111603 | 69 | 263 | 13.0 | 23.0 | 0.00 | 0.01 | 0.00 | 70 | |
| 20260903111503 | 69 | 263 | 13.0 | 23.0 | 0.00 | 0.01 | 0.00 | 71 | |
| 20260903111403 | 69 | 264 | 13.0 | 23.0 | 0.00 | 0.01 | 0.00 | 71 | |
| 20260903111303 | 68 | 264 | 14.0 | 23.0 | 0.00 | 0.01 | 0.00 | 70 | |
| 20260903111203 | 68 | 262 | 14.0 | 23.0 | 0.00 | 0.01 | 0.00 | 70 | |
| 20260903111124 | 68 | 262 | 14.0 | 23.0 | 0.00 | 0.01 | 0.00 | 70 | |
| 20260903111003 | 69 | 261 | 13.0 | 23.0 | 0.00 | 0.01 | 0.00 | 71 | |
| 20260903110903 | 69 | 261 | 13.0 | 23.0 | 0.00 | 0.01 | 0.00 | 72 | |
| 20260903110803 | 68 | 261 | 14.0 | 23.0 | 0.00 | 0.01 | 0.00 | 73 | |
| 20260903110703 | 68 | 261 | 14.0 | 23.0 | 0.00 | 0.01 | 0.00 | 72 | |
| 20260903110603 | 68 | 261 | 14.0 | 23.0 | 0.00 | 0.01 | 0.00 | 72 | |
| 20260903110503 | 68 | 259 | 14.0 | 23.0 | 0.00 | 0.01 | 0.00 | 71 | |
| 20260903110403 | 68 | 259 | 14.0 | 23.0 | 0.00 | 0.01 | 0.00 | 72 | |
| 20260903110303 | 68 | 260 | 13.0 | 23.0 | 0.00 | 0.01 | 0.00 | 73 | |
| 20260903110203 | 68 | 259 | 14.0 | 21.0 | 0.00 | 0.01 | 0.00 | 74 | |
| 20260903110003 | 68 | 259 | 15.0 | 24.0 | 0.00 | 0.01 | 0.00 | 75 | |
| 20260903105903 | 68 | 257 | 16.0 | 24.0 | 0.00 | 0.01 | 0.00 | 75 | |
| 20260903105803 | 68 | 255 | 16.0 | 27.0 | 0.00 | 0.01 | 0.00 | 75 | |
| 20260903105703 | 68 | 253 | 16.0 | 27.0 | 0.00 | 0.01 | 0.00 | 74 | |
| 20260903105603 | 68 | 253 | 16.0 | 27.0 | 0.00 | 0.01 | 0.00 | 75 | |
| 20260903105503 | 68 | 253 | 16.0 | 27.0 | 0.00 | 0.01 | 0.00 | 74 | |
| 20260903105424 | 68 | 252 | 16.0 | 27.0 | 0.00 | 0.01 | 0.00 | 74 | |
| 20260903105305 | 68 | 251 | 16.0 | 27.0 | 0.00 | 0.01 | 0.00 | 74 | |
| 20260903105203 | 68 | 254 | 16.0 | 27.0 | 0.00 | 0.01 | 0.00 | 75 | |
| 20260903105103 | 68 | 252 | 15.0 | 27.0 | 0.00 | 0.01 | 0.00 | 75 | |
| 20260903105003 | 68 | 252 | 15.0 | 27.0 | 0.00 | 0.01 | 0.00 | 75 | |
| 20260903104903 | 68 | 253 | 15.0 | 27.0 | 0.00 | 0.01 | 0.00 | 76 | |
| 20260903104803 | 68 | 254 | 15.0 | 21.0 | 0.00 | 0.01 | 0.00 | 76 | |
| 20260903104704 | 68 | 257 | 15.0 | 22.0 | 0.00 | 0.01 | 0.00 | 77 | |
| 20260903104603 | 67 | 258 | 15.0 | 24.0 | 0.00 | 0.01 | 0.00 | 77 | |
| 20260903104503 | 67 | 257 | 16.0 | 24.0 | 0.00 | 0.01 | 0.00 | 76 | |
| 20260903104403 | 67 | 256 | 16.0 | 24.0 | 0.00 | 0.01 | 0.00 | 76 | |
| 20260903104324 | 67 | 256 | 16.0 | 24.0 | 0.00 | 0.01 | 0.00 | 76 | |
| 20260903104203 | 67 | 254 | 16.0 | 24.0 | 0.00 | 0.01 | 0.00 | 77 | |
| 20260903104103 | 67 | 252 | 16.0 | 24.0 | 0.00 | 0.01 | 0.00 | 77 | |
| 20260903104004 | 67 | 252 | 16.0 | 24.0 | 0.00 | 0.01 | 0.00 | 77 | |
| 20260903103903 | 67 | 251 | 15.0 | 24.0 | 0.00 | 0.01 | 0.00 | 77 | |
| 20260903103803 | 67 | 251 | 15.0 | 24.0 | 0.00 | 0.01 | 0.00 | 77 | |
| 20260903103724 | 67 | 250 | 15.0 | 24.0 | 0.00 | 0.01 | 0.00 | 77 | |
| 20260903103603 | 67 | 249 | 14.0 | 22.0 | 0.00 | 0.01 | 0.00 | 78 | |
| 20260903103524 | 67 | 249 | 14.0 | 21.0 | 0.00 | 0.01 | 0.00 | 78 | |
| 20260903103403 | 67 | 250 | 15.0 | 21.0 | 0.00 | 0.01 | 0.00 | 78 | |
| 20260903103324 | 67 | 250 | 15.0 | 21.0 | 0.00 | 0.01 | 0.00 | 78 | |
| 20260903103203 | 67 | 249 | 14.0 | 21.0 | 0.00 | 0.01 | 0.00 | 79 | |
| 20260903103103 | 67 | 249 | 14.0 | 21.0 | 0.00 | 0.01 | 0.00 | 79 | |
| 20260903103003 | 67 | 249 | 14.0 | 21.0 | 0.00 | 0.01 | 0.00 | 79 | |
| 20260903102903 | 67 | 249 | 15.0 | 21.0 | 0.00 | 0.01 | 0.00 | 79 | |
| 20260903102803 | 67 | 249 | 15.0 | 21.0 | 0.00 | 0.01 | 0.00 | 80 | |
| 20260903102703 | 67 | 247 | 16.0 | 26.0 | 0.00 | 0.01 | 0.00 | 79 | |
| 20260903102604 | 67 | 246 | 15.0 | 26.0 | 0.00 | 0.01 | 0.00 | 79 | |
| 20260903102503 | 67 | 245 | 15.0 | 26.0 | 0.00 | 0.01 | 0.00 | 79 | |
| 20260903102403 | 67 | 244 | 15.0 | 26.0 | 0.00 | 0.01 | 0.00 | 81 | |
| 20260903102306 | 67 | 244 | 15.0 | 26.0 | 0.00 | 0.01 | 0.00 | 80 | |
| 20260903102203 | 67 | 244 | 14.0 | 26.0 | 0.00 | 0.01 | 0.00 | 81 | |
| 20260903102103 | 67 | 245 | 14.0 | 26.0 | 0.00 | 0.01 | 0.00 | 80 | |
| 20260903102003 | 67 | 245 | 14.0 | 26.0 | 0.00 | 0.01 | 0.00 | 80 | |
| 20260903101904 | 67 | 244 | 14.0 | 26.0 | 0.00 | 0.01 | 0.00 | 80 | |
| 20260903101803 | 67 | 244 | 13.0 | 26.0 | 0.00 | 0.01 | 0.00 | 81 | |
| 20260903101703 | 67 | 245 | 13.0 | 21.0 | 0.00 | 0.01 | 0.00 | 81 | |
| 20260903101603 | 67 | 246 | 13.0 | 20.0 | 0.00 | 0.01 | 0.00 | 81 | |
| 20260903101503 | 67 | 246 | 13.0 | 20.0 | 0.00 | 0.01 | 0.00 | 82 | |
| 20260903101424 | 67 | 248 | 13.0 | 20.0 | 0.00 | 0.01 | 0.00 | 82 | |
| 20260903101303 | 66 | 248 | 13.0 | 20.0 | 0.00 | 0.01 | 0.00 | 82 | |
| 20260903101224 | 66 | 248 | 13.0 | 20.0 | 0.00 | 0.01 | 0.00 | 82 | |
| 20260903101103 | 66 | 248 | 13.0 | 20.0 | 0.00 | 0.01 | 0.00 | 82 | |
| 20260903101003 | 66 | 247 | 13.0 | 20.0 | 0.00 | 0.01 | 0.00 | 81 | |
| 20260903100903 | 66 | 248 | 13.0 | 20.0 | 0.00 | 0.01 | 0.00 | 81 | |
| 20260903100824 | 66 | 248 | 13.0 | 20.0 | 0.00 | 0.01 | 0.00 | 81 | |
| 20260903100703 | 66 | 248 | 13.0 | 20.0 | 0.00 | 0.01 | 0.00 | 82 | |
| 20260903100604 | 65 | 249 | 13.0 | 20.0 | 0.00 | 0.01 | 0.00 | 83 | |
| 20260903100503 | 65 | 248 | 13.0 | 20.0 | 0.00 | 0.01 | 0.00 | 83 | |
| 20260903100404 | 65 | 247 | 12.0 | 20.0 | 0.00 | 0.01 | 0.00 | 83 | |
| 20260903100303 | 65 | 247 | 12.0 | 18.0 | 0.00 | 0.01 | 0.00 | 83 | |
| 20260903100203 | 65 | 247 | 12.0 | 18.0 | 0.00 | 0.01 | 0.00 | 83 | |
| 20260903100124 | 65 | 247 | 12.0 | 18.0 | 0.00 | 0.01 | 0.00 | 83 | |
| 20260903100003 | 64 | 248 | 12.0 | 18.0 | 0.00 | 0.01 | 0.00 | 83 | |
| 20260903095924 | 64 | 248 | 12.0 | 18.0 | 0.00 | 0.01 | 0.00 | 83 | |
| 20260903095824 | 64 | 247 | 12.0 | 18.0 | 0.00 | 0.01 | 0.00 | 83 | |
| 20260903095703 | 64 | 248 | 12.0 | 18.0 | 0.00 | 0.01 | 0.00 | 84 | |
| 20260903095603 | 64 | 248 | 12.0 | 18.0 | 0.00 | 0.01 | 0.00 | 84 | |
| 20260903095503 | 64 | 248 | 12.0 | 16.0 | 0.00 | 0.01 | 0.00 | 84 | |
| 20260903095403 | 64 | 249 | 12.0 | 16.0 | 0.00 | 0.01 | 0.00 | 84 | |
| 20260903095305 | 64 | 249 | 12.0 | 16.0 | 0.00 | 0.01 | 0.00 | 84 | |
| 20260903095203 | 64 | 248 | 12.0 | 18.0 | 0.00 | 0.01 | 0.00 | 84 | |
| 20260903095124 | 64 | 248 | 12.0 | 18.0 | 0.00 | 0.01 | 0.00 | 84 | |
| 20260903095003 | 64 | 247 | 12.0 | 18.0 | 0.00 | 0.01 | 0.00 | 85 | |
| 20260903094903 | 64 | 246 | 12.0 | 18.0 | 0.00 | 0.01 | 0.00 | 85 | |
| 20260903094824 | 64 | 246 | 12.0 | 18.0 | 0.00 | 0.01 | 0.00 | 85 | |
| 20260903094703 | 64 | 245 | 12.0 | 18.0 | 0.00 | 0.01 | 0.00 | 85 | |
| 20260903094624 | 64 | 245 | 12.0 | 18.0 | 0.00 | 0.01 | 0.00 | 85 | |
| 20260903094504 | 64 | 245 | 12.0 | 18.0 | 0.00 | 0.01 | 0.00 | 85 | |
| 20260903094404 | 64 | 244 | 12.0 | 18.0 | 0.00 | 0.01 | 0.00 | 85 | |
| 20260903094303 | 64 | 245 | 12.0 | 19.0 | 0.00 | 0.01 | 0.00 | 85 | |
| 20260903094203 | 64 | 245 | 13.0 | 19.0 | 0.00 | 0.01 | 0.00 | 86 | |
| 20260903094103 | 64 | 245 | 13.0 | 21.0 | 0.00 | 0.01 | 0.00 | 86 | |
| 20260903094003 | 64 | 245 | 14.0 | 23.0 | 0.00 | 0.01 | 0.00 | 86 | |
| 20260903093903 | 64 | 245 | 14.0 | 23.0 | 0.00 | 0.01 | 0.00 | 86 | |
| 20260903093824 | 64 | 246 | 14.0 | 23.0 | 0.00 | 0.01 | 0.00 | 86 | |
| 20260903093703 | 64 | 246 | 14.0 | 23.0 | 0.00 | 0.01 | 0.00 | 86 | |
| 20260903093603 | 64 | 247 | 14.0 | 23.0 | 0.00 | 0.01 | 0.00 | 86 | |
| 20260903093503 | 63 | 247 | 14.0 | 23.0 | 0.00 | 0.01 | 0.00 | 86 | |
| 20260903093403 | 64 | 247 | 13.0 | 23.0 | 0.00 | 0.01 | 0.00 | 85 | |
| 20260903093324 | 64 | 247 | 13.0 | 23.0 | 0.00 | 0.01 | 0.00 | 85 | |
| 20260903093224 | 64 | 247 | 13.0 | 23.0 | 0.00 | 0.01 | 0.00 | 85 | |
| 20260903093103 | 64 | 248 | 12.0 | 23.0 | 0.00 | 0.01 | 0.00 | 85 | |
| 20260903093024 | 64 | 249 | 12.0 | 23.0 | 0.00 | 0.01 | 0.00 | 85 | |
| 20260903092905 | 64 | 251 | 11.0 | 20.0 | 0.00 | 0.01 | 0.00 | 84 | |
| 20260903092824 | 64 | 251 | 11.0 | 20.0 | 0.00 | 0.01 | 0.00 | 84 | |
| 20260903092703 | 64 | 252 | 11.0 | 16.0 | 0.00 | 0.01 | 0.00 | 84 | |
| 20260903092603 | 64 | 253 | 11.0 | 16.0 | 0.00 | 0.01 | 0.00 | 84 | |
| 20260903092503 | 64 | 253 | 11.0 | 16.0 | 0.00 | 0.01 | 0.00 | 84 | |
| 20260903092424 | 64 | 254 | 11.0 | 16.0 | 0.00 | 0.01 | 0.00 | 84 | |
| 20260903092306 | 64 | 255 | 11.0 | 16.0 | 0.00 | 0.01 | 0.00 | 84 | |
| 20260903092203 | 64 | 255 | 11.0 | 16.0 | 0.00 | 0.01 | 0.00 | 83 | |
| 20260903092124 | 64 | 254 | 11.0 | 16.0 | 0.00 | 0.01 | 0.00 | 83 | |
| 20260903092004 | 64 | 255 | 10.0 | 16.0 | 0.00 | 0.01 | 0.00 | 84 | |
| 20260903091903 | 64 | 255 | 10.0 | 15.0 | 0.00 | 0.01 | 0.00 | 84 | |
| 20260903091803 | 64 | 255 | 10.0 | 15.0 | 0.00 | 0.01 | 0.00 | 84 | |
| 20260903091703 | 64 | 256 | 10.0 | 15.0 | 0.00 | 0.01 | 0.00 | 84 | |
| 20260903091603 | 64 | 257 | 11.0 | 16.0 | 0.00 | 0.01 | 0.00 | 84 | |
| 20260903091503 | 64 | 258 | 11.0 | 21.0 | 0.00 | 0.01 | 0.00 | 84 | |
| 20260903091404 | 64 | 261 | 11.0 | 21.0 | 0.00 | 0.01 | 0.00 | 84 | |
| 20260903091304 | 64 | 264 | 12.0 | 21.0 | 0.00 | 0.01 | 0.00 | 84 | |
| 20260903091203 | 64 | 265 | 12.0 | 21.0 | 0.00 | 0.01 | 0.00 | 84 | |
| 20260903091103 | 64 | 266 | 12.0 | 21.0 | 0.00 | 0.01 | 0.00 | 84 | |
| 20260903091003 | 64 | 267 | 12.0 | 21.0 | 0.00 | 0.01 | 0.00 | 84 | |
| 20260903090924 | 64 | 268 | 12.0 | 21.0 | 0.00 | 0.01 | 0.00 | 84 | |
| 20260903090804 | 64 | 268 | 13.0 | 21.0 | 0.00 | 0.01 | 0.00 | 83 | |
| 20260903090703 | 64 | 267 | 13.0 | 21.0 | 0.00 | 0.01 | 0.00 | 83 | |
| 20260903090624 | 64 | 265 | 13.0 | 21.0 | 0.00 | 0.01 | 0.00 | 83 | |
| 20260903090503 | 64 | 262 | 13.0 | 27.0 | 0.00 | 0.01 | 0.00 | 83 | |
| 20260903090403 | 64 | 259 | 13.0 | 27.0 | 0.00 | 0.01 | 0.00 | 83 | |
| 20260903090303 | 64 | 255 | 14.0 | 27.0 | 0.00 | 0.01 | 0.00 | 83 | |
| 20260903090203 | 64 | 255 | 14.0 | 27.0 | 0.00 | 0.01 | 0.00 | 83 | |
| 20260903090003 | 64 | 253 | 15.0 | 27.0 | 0.00 | 0.01 | 0.00 | 83 | |
| 20260903085903 | 64 | 250 | 15.0 | 27.0 | 0.00 | 0.01 | 0.00 | 83 | |
| 20260903085824 | 64 | 250 | 15.0 | 27.0 | 0.00 | 0.01 | 0.00 | 83 | |
| 20260903085703 | 64 | 250 | 15.0 | 27.0 | 0.00 | 0.01 | 0.00 | 83 | |
| 20260903085603 | 64 | 250 | 15.0 | 27.0 | 0.00 | 0.01 | 0.00 | 83 | |
| 20260903085503 | 64 | 250 | 16.0 | 27.0 | 0.00 | 0.01 | 0.00 | 83 | |
| 20260903085403 | 64 | 251 | 16.0 | 27.0 | 0.00 | 0.01 | 0.00 | 82 | |
| 20260903085324 | 64 | 250 | 16.0 | 27.0 | 0.00 | 0.01 | 0.00 | 82 | |
| 20260903085203 | 64 | 248 | 16.0 | 24.0 | 0.00 | 0.01 | 0.00 | 83 | |
| 20260903085103 | 64 | 246 | 16.0 | 24.0 | 0.00 | 0.01 | 0.00 | 82 | |
| 20260903085003 | 64 | 245 | 16.0 | 24.0 | 0.00 | 0.01 | 0.00 | 82 | |
| 20260903084924 | 64 | 246 | 16.0 | 24.0 | 0.00 | 0.01 | 0.00 | 82 | |
| 20260903084803 | 64 | 245 | 15.0 | 24.0 | 0.00 | 0.01 | 0.00 | 82 | |
| 20260903084703 | 64 | 245 | 15.0 | 24.0 | 0.00 | 0.01 | 0.00 | 82 | |
| 20260903084624 | 64 | 245 | 15.0 | 24.0 | 0.00 | 0.01 | 0.00 | 82 | |
| 20260903084503 | 64 | 245 | 15.0 | 24.0 | 0.00 | 0.01 | 0.00 | 81 | |
| 20260903084403 | 65 | 244 | 15.0 | 24.0 | 0.00 | 0.01 | 0.00 | 82 | |
| 20260903084303 | 65 | 245 | 14.0 | 23.0 | 0.00 | 0.01 | 0.00 | 82 | |
| 20260903084203 | 65 | 245 | 14.0 | 23.0 | 0.00 | 0.01 | 0.00 | 82 | |
| 20260903084103 | 65 | 246 | 14.0 | 22.0 | 0.00 | 0.01 | 0.00 | 82 | |
| 20260903084003 | 65 | 245 | 14.0 | 22.0 | 0.00 | 0.01 | 0.00 | 82 | |
| 20260903083924 | 65 | 244 | 14.0 | 22.0 | 0.00 | 0.01 | 0.00 | 82 | |
| 20260903083803 | 65 | 243 | 14.0 | 22.0 | 0.00 | 0.01 | 0.00 | 82 | |
| 20260903083724 | 65 | 242 | 14.0 | 22.0 | 0.00 | 0.01 | 0.00 | 82 | |
| 20260903083603 | 65 | 241 | 13.0 | 22.0 | 0.00 | 0.01 | 0.00 | 82 | |
| 20260903083503 | 65 | 239 | 13.0 | 22.0 | 0.00 | 0.01 | 0.00 | 82 | |
| 20260903083403 | 65 | 238 | 13.0 | 20.0 | 0.00 | 0.01 | 0.00 | 82 | |
| 20260903083324 | 65 | 238 | 13.0 | 20.0 | 0.00 | 0.01 | 0.00 | 82 | |
| 20260903083203 | 65 | 236 | 13.0 | 20.0 | 0.00 | 0.01 | 0.00 | 82 | |
| 20260903083103 | 65 | 235 | 13.0 | 19.0 | 0.00 | 0.01 | 0.00 | 82 | |
| 20260903083003 | 65 | 236 | 13.0 | 19.0 | 0.00 | 0.01 | 0.00 | 82 | |
| 20260903082903 | 65 | 237 | 13.0 | 20.0 | 0.00 | 0.01 | 0.00 | 82 | |
| 20260903082803 | 65 | 238 | 13.0 | 20.0 | 0.00 | 0.01 | 0.00 | 82 | |
| 20260903082703 | 65 | 238 | 13.0 | 20.0 | 0.00 | 0.01 | 0.00 | 82 | |
| 20260903082603 | 65 | 239 | 12.0 | 20.0 | 0.00 | 0.01 | 0.00 | 82 | |
| 20260903082503 | 65 | 241 | 12.0 | 20.0 | 0.00 | 0.01 | 0.00 | 82 | |
| 20260903082403 | 65 | 242 | 11.0 | 20.0 | 0.00 | 0.01 | 0.00 | 82 | |
| 20260903082306 | 65 | 244 | 11.0 | 20.0 | 0.00 | 0.01 | 0.00 | 82 | |
| 20260903082203 | 65 | 247 | 11.0 | 20.0 | 0.00 | 0.01 | 0.00 | 82 | |
| 20260903082103 | 65 | 249 | 11.0 | 20.0 | 0.00 | 0.01 | 0.00 | 81 | |
| 20260903082003 | 65 | 251 | 10.0 | 20.0 | 0.00 | 0.01 | 0.00 | 82 | |
| 20260903081924 | 65 | 252 | 10.0 | 20.0 | 0.00 | 0.01 | 0.00 | 82 | |
| 20260903081824 | 65 | 253 | 10.0 | 15.0 | 0.00 | 0.01 | 0.00 | 82 | |
| 20260903081703 | 65 | 253 | 9.0 | 16.0 | 0.00 | 0.01 | 0.00 | 82 | |
| 20260903081603 | 65 | 252 | 10.0 | 16.0 | 0.00 | 0.01 | 0.00 | 82 | |
| 20260903081503 | 65 | 252 | 9.0 | 16.0 | 0.00 | 0.01 | 0.00 | 82 | |
| 20260903081403 | 65 | 252 | 10.0 | 16.0 | 0.00 | 0.01 | 0.00 | 82 | |
| 20260903081303 | 65 | 250 | 10.0 | 16.0 | 0.00 | 0.01 | 0.00 | 82 | |
| 20260903081203 | 65 | 249 | 10.0 | 16.0 | 0.00 | 0.01 | 0.00 | 82 | |
| 20260903081103 | 65 | 248 | 10.0 | 16.0 | 0.00 | 0.01 | 0.00 | 82 | |
| 20260903081003 | 65 | 248 | 10.0 | 16.0 | 0.00 | 0.01 | 0.00 | 82 | |
| 20260903080904 | 65 | 246 | 10.0 | 16.0 | 0.00 | 0.01 | 0.00 | 82 | |
| 20260903080803 | 65 | 246 | 10.0 | 16.0 | 0.00 | 0.01 | 0.00 | 82 | |
| 20260903080703 | 65 | 247 | 10.0 | 16.0 | 0.00 | 0.01 | 0.00 | 82 | |
| 20260903080603 | 65 | 247 | 10.0 | 16.0 | 0.00 | 0.01 | 0.00 | 82 | |
| 20260903080503 | 65 | 246 | 10.0 | 16.0 | 0.00 | 0.01 | 0.00 | 82 | |
| 20260903080403 | 65 | 247 | 10.0 | 16.0 | 0.00 | 0.01 | 0.00 | 83 | |
| 20260903080303 | 65 | 247 | 9.0 | 15.0 | 0.00 | 0.01 | 0.00 | 83 | |
| 20260903080225 | 65 | 248 | 9.0 | 15.0 | 0.00 | 0.01 | 0.00 | 83 | |
| 20260903080124 | 65 | 248 | 9.0 | 15.0 | 0.00 | 0.01 | 0.00 | 83 | |
| 20260903080003 | 65 | 247 | 9.0 | 15.0 | 0.00 | 0.01 | 0.00 | 83 | |
| 20260903075903 | 65 | 248 | 9.0 | 14.0 | 0.00 | 0.01 | 0.00 | 83 | |
| 20260903075803 | 65 | 250 | 9.0 | 14.0 | 0.00 | 0.01 | 0.00 | 83 | |
| 20260903075703 | 65 | 250 | 9.0 | 14.0 | 0.00 | 0.01 | 0.00 | 83 | |
| 20260903075603 | 65 | 252 | 9.0 | 14.0 | 0.00 | 0.01 | 0.00 | 83 | |
| 20260903075503 | 65 | 254 | 9.0 | 14.0 | 0.00 | 0.01 | 0.00 | 83 | |
| 20260903075403 | 65 | 255 | 9.0 | 14.0 | 0.00 | 0.01 | 0.00 | 83 | |
| 20260903075306 | 65 | 257 | 9.0 | 13.0 | 0.00 | 0.01 | 0.00 | 83 | |
| 20260903075224 | 65 | 259 | 9.0 | 13.0 | 0.00 | 0.01 | 0.00 | 83 | |
| 20260903075103 | 65 | 260 | 8.0 | 13.0 | 0.00 | 0.01 | 0.00 | 83 | |
| 20260903075024 | 65 | 261 | 8.0 | 13.0 | 0.00 | 0.01 | 0.00 | 83 | |
| 20260903074903 | 65 | 261 | 9.0 | 16.0 | 0.00 | 0.01 | 0.00 | 83 | |
| 20260903074803 | 65 | 260 | 9.0 | 16.0 | 0.00 | 0.01 | 0.00 | 83 | |
| 20260903074703 | 65 | 260 | 9.0 | 16.0 | 0.00 | 0.01 | 0.00 | 83 | |
| 20260903074603 | 65 | 260 | 9.0 | 16.0 | 0.00 | 0.01 | 0.00 | 83 | |
| 20260903074503 | 65 | 261 | 9.0 | 16.0 | 0.00 | 0.01 | 0.00 | 82 | |
| 20260903074403 | 65 | 262 | 9.0 | 16.0 | 0.00 | 0.01 | 0.00 | 83 | |
| 20260903074303 | 65 | 262 | 9.0 | 18.0 | 0.00 | 0.01 | 0.00 | 83 | |
| 20260903074203 | 65 | 263 | 9.0 | 18.0 | 0.00 | 0.01 | 0.00 | 83 | |
| 20260903074103 | 65 | 266 | 10.0 | 18.0 | 0.00 | 0.01 | 0.00 | 82 | |
| 20260903074024 | 65 | 267 | 10.0 | 18.0 | 0.00 | 0.01 | 0.00 | 82 | |
| 20260903073903 | 65 | 271 | 10.0 | 18.0 | 0.00 | 0.01 | 0.00 | 82 | |
| 20260903073803 | 65 | 273 | 10.0 | 18.0 | 0.00 | 0.01 | 0.00 | 82 | |
| 20260903073703 | 65 | 275 | 10.0 | 19.0 | 0.00 | 0.01 | 0.00 | 82 | |
| 20260903073603 | 65 | 277 | 11.0 | 19.0 | 0.00 | 0.01 | 0.00 | 82 | |
| 20260903073524 | 65 | 278 | 11.0 | 19.0 | 0.00 | 0.01 | 0.00 | 82 | |
| 20260903073403 | 65 | 279 | 10.0 | 19.0 | 0.00 | 0.01 | 0.00 | 82 | |
| 20260903073303 | 65 | 281 | 11.0 | 19.0 | 0.00 | 0.01 | 0.00 | 82 | |
| 20260903073203 | 65 | 282 | 11.0 | 19.0 | 0.00 | 0.01 | 0.00 | 82 | |
| 20260903073103 | 65 | 282 | 11.0 | 19.0 | 0.00 | 0.01 | 0.00 | 82 | |
| 20260903073024 | 65 | 280 | 11.0 | 19.0 | 0.00 | 0.01 | 0.00 | 82 | |
| 20260903072903 | 65 | 277 | 11.0 | 21.0 | 0.00 | 0.01 | 0.00 | 82 | |
| 20260903072803 | 65 | 276 | 11.0 | 21.0 | 0.00 | 0.01 | 0.00 | 82 | |
| 20260903072703 | 65 | 275 | 11.0 | 21.0 | 0.00 | 0.01 | 0.00 | 82 | |
| 20260903072603 | 65 | 273 | 11.0 | 21.0 | 0.00 | 0.01 | 0.00 | 82 | |
| 20260903072503 | 65 | 270 | 11.0 | 21.0 | 0.00 | 0.01 | 0.00 | 82 | |
| 20260903072424 | 65 | 269 | 11.0 | 21.0 | 0.00 | 0.01 | 0.00 | 82 | |
| 20260903072306 | 65 | 268 | 12.0 | 21.0 | 0.00 | 0.01 | 0.00 | 82 | |
| 20260903072203 | 65 | 266 | 12.0 | 21.0 | 0.00 | 0.01 | 0.00 | 82 | |
| 20260903072103 | 65 | 264 | 12.0 | 21.0 | 0.00 | 0.01 | 0.00 | 82 | |
| 20260903072003 | 65 | 264 | 11.0 | 21.0 | 0.00 | 0.01 | 0.00 | 82 | |
| 20260903071903 | 65 | 264 | 11.0 | 21.0 | 0.00 | 0.01 | 0.00 | 83 | |
| 20260903071803 | 65 | 264 | 11.0 | 19.0 | 0.00 | 0.01 | 0.00 | 83 | |
| 20260903071703 | 65 | 265 | 11.0 | 19.0 | 0.00 | 0.01 | 0.00 | 83 | |
| 20260903071603 | 64 | 265 | 11.0 | 19.0 | 0.00 | 0.01 | 0.00 | 83 | |
| 20260903071503 | 64 | 266 | 11.0 | 19.0 | 0.00 | 0.01 | 0.00 | 83 | |
| 20260903071403 | 64 | 268 | 11.0 | 19.0 | 0.00 | 0.01 | 0.00 | 83 | |
| 20260903071303 | 64 | 267 | 10.0 | 19.0 | 0.00 | 0.01 | 0.00 | 83 | |
| 20260903071203 | 64 | 268 | 10.0 | 19.0 | 0.00 | 0.01 | 0.00 | 83 | |
| 20260903071103 | 64 | 267 | 10.0 | 19.0 | 0.00 | 0.01 | 0.00 | 83 | |
| 20260903071003 | 64 | 268 | 10.0 | 19.0 | 0.00 | 0.01 | 0.00 | 83 | |
| 20260903070903 | 64 | 269 | 10.0 | 19.0 | 0.00 | 0.01 | 0.00 | 83 | |
| 20260903070803 | 64 | 267 | 10.0 | 19.0 | 0.00 | 0.01 | 0.00 | 83 | |
| 20260903070703 | 64 | 266 | 10.0 | 18.0 | 0.00 | 0.01 | 0.00 | 83 | |
| 20260903070603 | 64 | 266 | 10.0 | 19.0 | 0.00 | 0.01 | 0.00 | 83 | |
| 20260903070503 | 64 | 264 | 10.0 | 19.0 | 0.00 | 0.01 | 0.00 | 83 | |
| 20260903070403 | 64 | 262 | 10.0 | 19.0 | 0.00 | 0.01 | 0.00 | 83 | |
| 20260903070303 | 64 | 260 | 10.0 | 19.0 | 0.00 | 0.01 | 0.00 | 83 | |
| 20260903070203 | 64 | 260 | 10.0 | 19.0 | 0.00 | 0.01 | 0.00 | 83 | |
| 20260903070103 | 64 | 261 | 10.0 | 19.0 | 0.00 | 0.01 | 0.00 | 83 | |
| 20260903070024 | 64 | 262 | 10.0 | 19.0 | 0.00 | 0.01 | 0.00 | 83 | |
| 20260903065903 | 64 | 262 | 10.0 | 19.0 | 0.00 | 0.01 | 0.00 | 83 | |
| 20260903065803 | 64 | 263 | 10.0 | 19.0 | 0.00 | 0.01 | 0.00 | 83 | |
| 20260903065724 | 64 | 263 | 10.0 | 19.0 | 0.00 | 0.01 | 0.00 | 83 | |
| 20260903065603 | 64 | 261 | 10.0 | 16.0 | 0.00 | 0.01 | 0.00 | 83 | |
| 20260903065503 | 64 | 262 | 10.0 | 16.0 | 0.00 | 0.01 | 0.00 | 83 | |
| 20260903065403 | 64 | 262 | 10.0 | 16.0 | 0.00 | 0.01 | 0.00 | 83 | |
| 20260903065305 | 64 | 261 | 11.0 | 16.0 | 0.00 | 0.01 | 0.00 | 84 | |
| 20260903065203 | 64 | 261 | 11.0 | 18.0 | 0.00 | 0.01 | 0.00 | 84 | |
| 20260903065103 | 64 | 261 | 11.0 | 25.0 | 0.00 | 0.01 | 0.00 | 84 | |
| 20260903065003 | 64 | 260 | 12.0 | 25.0 | 0.00 | 0.01 | 0.00 | 84 | |
| 20260903064903 | 64 | 259 | 12.0 | 25.0 | 0.00 | 0.01 | 0.00 | 84 | |
| 20260903064803 | 64 | 257 | 12.0 | 25.0 | 0.00 | 0.01 | 0.00 | 84 | |
| 20260903064703 | 64 | 256 | 12.0 | 25.0 | 0.00 | 0.01 | 0.00 | 84 | |
| 20260903064603 | 64 | 255 | 12.0 | 25.0 | 0.00 | 0.01 | 0.00 | 84 | |
| 20260903064503 | 64 | 254 | 12.0 | 25.0 | 0.00 | 0.01 | 0.00 | 84 | |
| 20260903064403 | 64 | 254 | 12.0 | 25.0 | 0.00 | 0.01 | 0.00 | 84 | |
| 20260903064304 | 64 | 253 | 11.0 | 25.0 | 0.00 | 0.01 | 0.00 | 84 | |
| 20260903064224 | 64 | 252 | 11.0 | 25.0 | 0.00 | 0.01 | 0.00 | 84 | |
| 20260903064103 | 64 | 250 | 10.0 | 16.0 | 0.00 | 0.01 | 0.00 | 86 | |
| 20260903064003 | 64 | 249 | 10.0 | 16.0 | 0.00 | 0.01 | 0.00 | 86 | |
| 20260903063903 | 64 | 249 | 10.0 | 16.0 | 0.00 | 0.01 | 0.00 | 86 | |
| 20260903063803 | 64 | 249 | 10.0 | 16.0 | 0.00 | 0.01 | 0.00 | 86 | |
| 20260903063703 | 64 | 250 | 10.0 | 15.0 | 0.00 | 0.01 | 0.00 | 86 | |
| 20260903063625 | 64 | 250 | 10.0 | 15.0 | 0.00 | 0.01 | 0.00 | 86 | |
| 20260903063503 | 64 | 251 | 10.0 | 14.0 | 0.00 | 0.01 | 0.00 | 86 | |
| 20260903063403 | 64 | 251 | 10.0 | 14.0 | 0.00 | 0.01 | 0.00 | 86 | |
| 20260903063303 | 64 | 251 | 10.0 | 15.0 | 0.00 | 0.01 | 0.00 | 86 | |
| 20260903063203 | 64 | 250 | 11.0 | 15.0 | 0.00 | 0.01 | 0.00 | 86 | |
| 20260903063103 | 64 | 249 | 11.0 | 16.0 | 0.00 | 0.01 | 0.00 | 86 | |
| 20260903063003 | 64 | 249 | 11.0 | 16.0 | 0.00 | 0.01 | 0.00 | 86 | |
| 20260903062903 | 64 | 249 | 12.0 | 20.0 | 0.00 | 0.01 | 0.00 | 87 | |
| 20260903062803 | 64 | 249 | 12.0 | 20.0 | 0.00 | 0.01 | 0.00 | 87 | |
| 20260903062703 | 64 | 248 | 12.0 | 20.0 | 0.00 | 0.01 | 0.00 | 87 | |
| 20260903062603 | 64 | 249 | 12.0 | 20.0 | 0.00 | 0.01 | 0.00 | 87 | |
| 20260903062503 | 64 | 248 | 12.0 | 20.0 | 0.00 | 0.01 | 0.00 | 86 | |
| 20260903062403 | 64 | 249 | 11.0 | 20.0 | 0.00 | 0.01 | 0.00 | 87 | |
| 20260903062324 | 64 | 249 | 11.0 | 20.0 | 0.00 | 0.01 | 0.00 | 87 | |
| 20260903062224 | 64 | 250 | 11.0 | 20.0 | 0.00 | 0.01 | 0.00 | 87 | |
| 20260903062103 | 64 | 251 | 11.0 | 20.0 | 0.00 | 0.01 | 0.00 | 87 | |
| 20260903062003 | 64 | 250 | 11.0 | 20.0 | 0.00 | 0.01 | 0.00 | 87 | |
| 20260903061924 | 64 | 249 | 11.0 | 16.0 | 0.00 | 0.01 | 0.00 | 87 | |
| 20260903061803 | 64 | 249 | 10.0 | 16.0 | 0.00 | 0.01 | 0.00 | 88 | |
| 20260903061703 | 64 | 248 | 10.0 | 15.0 | 0.00 | 0.01 | 0.00 | 88 | |
| 20260903061624 | 64 | 247 | 10.0 | 15.0 | 0.00 | 0.01 | 0.00 | 88 | |
| 20260903061503 | 64 | 246 | 10.0 | 15.0 | 0.00 | 0.01 | 0.00 | 89 | |
| 20260903061403 | 64 | 245 | 10.0 | 13.0 | 0.00 | 0.01 | 0.00 | 89 | |
| 20260903061303 | 64 | 244 | 10.0 | 13.0 | 0.00 | 0.01 | 0.00 | 89 | |
| 20260903061203 | 64 | 242 | 10.0 | 13.0 | 0.00 | 0.01 | 0.00 | 89 | |
| 20260903061103 | 64 | 242 | 9.0 | 13.0 | 0.00 | 0.01 | 0.00 | 90 | |
| 20260903061003 | 64 | 241 | 9.0 | 13.0 | 0.00 | 0.01 | 0.00 | 90 | |
| 20260903060903 | 64 | 241 | 9.0 | 13.0 | 0.00 | 0.01 | 0.00 | 90 | |
| 20260903060803 | 64 | 241 | 8.0 | 13.0 | 0.00 | 0.01 | 0.00 | 89 | |
| 20260903060703 | 64 | 242 | 8.0 | 13.0 | 0.00 | 0.01 | 0.00 | 90 | |
| 20260903060624 | 64 | 242 | 8.0 | 13.0 | 0.00 | 0.01 | 0.00 | 90 | |
| 20260903060503 | 64 | 241 | 8.0 | 12.0 | 0.00 | 0.01 | 0.00 | 89 | |
| 20260903060403 | 64 | 241 | 8.0 | 12.0 | 0.00 | 0.01 | 0.00 | 89 | |
| 20260903060303 | 64 | 241 | 8.0 | 12.0 | 0.00 | 0.01 | 0.00 | 89 | |
| 20260903060203 | 64 | 241 | 8.0 | 12.0 | 0.00 | 0.01 | 0.00 | 89 | |
| 20260903060103 | 64 | 242 | 8.0 | 12.0 | 0.00 | 0.01 | 0.00 | 89 | |
| 20260903060003 | 64 | 242 | 8.0 | 15.0 | 0.00 | 0.01 | 0.00 | 89 | |
| 20260903055925 | 64 | 242 | 8.0 | 15.0 | 0.00 | 0.01 | 0.00 | 89 | |
| 20260903055803 | 64 | 243 | 8.0 | 15.0 | 0.00 | 0.01 | 0.00 | 89 | |
| 20260903055703 | 64 | 243 | 9.0 | 15.0 | 0.00 | 0.01 | 0.00 | 89 | |
| 20260903055624 | 64 | 244 | 9.0 | 15.0 | 0.00 | 0.01 | 0.00 | 89 | |
| 20260903055503 | 64 | 246 | 9.0 | 15.0 | 0.00 | 0.01 | 0.00 | 88 | |
| 20260903055424 | 64 | 248 | 9.0 | 15.0 | 0.00 | 0.01 | 0.00 | 88 | |
| 20260903055306 | 64 | 253 | 9.0 | 15.0 | 0.00 | 0.01 | 0.00 | 88 | |
| 20260903055225 | 64 | 254 | 9.0 | 15.0 | 0.00 | 0.01 | 0.00 | 88 | |
| 20260903055103 | 64 | 256 | 9.0 | 15.0 | 0.00 | 0.01 | 0.00 | 88 | |
| 20260903055003 | 64 | 259 | 9.0 | 15.0 | 0.00 | 0.01 | 0.00 | 88 | |
| 20260903054903 | 64 | 259 | 9.0 | 15.0 | 0.00 | 0.01 | 0.00 | 88 | |
| 20260903054824 | 64 | 259 | 9.0 | 15.0 | 0.00 | 0.01 | 0.00 | 88 | |
| 20260903054703 | 64 | 259 | 10.0 | 16.0 | 0.00 | 0.01 | 0.00 | 88 | |
| 20260903054603 | 64 | 259 | 10.0 | 16.0 | 0.00 | 0.01 | 0.00 | 88 | |
| 20260903054503 | 64 | 258 | 10.0 | 16.0 | 0.00 | 0.01 | 0.00 | 88 | |
| 20260903054403 | 64 | 255 | 10.0 | 16.0 | 0.00 | 0.01 | 0.00 | 88 | |
| 20260903054324 | 64 | 254 | 10.0 | 16.0 | 0.00 | 0.01 | 0.00 | 88 | |
| 20260903054224 | 64 | 253 | 10.0 | 16.0 | 0.00 | 0.01 | 0.00 | 88 | |
| 20260903054103 | 64 | 251 | 10.0 | 16.0 | 0.00 | 0.01 | 0.00 | 88 | |
| 20260903054003 | 64 | 249 | 10.0 | 16.0 | 0.00 | 0.01 | 0.00 | 89 | |
| 20260903053903 | 64 | 249 | 10.0 | 16.0 | 0.00 | 0.01 | 0.00 | 89 | |
| 20260903053803 | 64 | 249 | 10.0 | 16.0 | 0.00 | 0.01 | 0.00 | 89 | |
| 20260903053724 | 64 | 248 | 10.0 | 16.0 | 0.00 | 0.01 | 0.00 | 89 | |
| 20260903053603 | 64 | 247 | 10.0 | 15.0 | 0.00 | 0.01 | 0.00 | 89 | |
| 20260903053503 | 64 | 247 | 10.0 | 15.0 | 0.00 | 0.01 | 0.00 | 89 | |
| 20260903053424 | 64 | 245 | 10.0 | 15.0 | 0.00 | 0.01 | 0.00 | 89 | |
| 20260903053303 | 64 | 246 | 10.0 | 16.0 | 0.00 | 0.01 | 0.00 | 89 | |
| 20260903053203 | 64 | 244 | 10.0 | 16.0 | 0.00 | 0.01 | 0.00 | 89 | |
| 20260903053103 | 64 | 245 | 10.0 | 16.0 | 0.00 | 0.01 | 0.00 | 89 | |
| 20260903053005 | 64 | 245 | 10.0 | 16.0 | 0.00 | 0.01 | 0.00 | 89 | |
| 20260903052903 | 64 | 245 | 10.0 | 16.0 | 0.00 | 0.01 | 0.00 | 89 | |
| 20260903052824 | 64 | 245 | 10.0 | 16.0 | 0.00 | 0.01 | 0.00 | 89 | |
| 20260903052703 | 64 | 245 | 10.0 | 16.0 | 0.00 | 0.01 | 0.00 | 89 | |
| 20260903052603 | 64 | 245 | 10.0 | 16.0 | 0.00 | 0.01 | 0.00 | 89 | |
| 20260903052503 | 64 | 246 | 10.0 | 16.0 | 0.00 | 0.01 | 0.00 | 90 | |
| 20260903052403 | 64 | 246 | 10.0 | 16.0 | 0.00 | 0.01 | 0.00 | 90 | |
| 20260903052306 | 64 | 244 | 10.0 | 15.0 | 0.00 | 0.01 | 0.00 | 90 | |
| 20260903052203 | 64 | 245 | 10.0 | 15.0 | 0.00 | 0.01 | 0.00 | 90 | |
| 20260903052103 | 64 | 244 | 10.0 | 15.0 | 0.00 | 0.01 | 0.00 | 90 | |
| 20260903052003 | 64 | 243 | 10.0 | 15.0 | 0.00 | 0.01 | 0.00 | 90 | |
| 20260903051904 | 64 | 243 | 10.0 | 14.0 | 0.00 | 0.01 | 0.00 | 90 | |
| 20260903051824 | 64 | 243 | 10.0 | 14.0 | 0.00 | 0.01 | 0.00 | 90 | |
| 20260903051724 | 64 | 242 | 10.0 | 14.0 | 0.00 | 0.01 | 0.00 | 90 | |
| 20260903051624 | 64 | 242 | 9.0 | 14.0 | 0.00 | 0.01 | 0.00 | 90 | |
| 20260903051504 | 64 | 242 | 10.0 | 14.0 | 0.00 | 0.01 | 0.00 | 90 | |
| 20260903051405 | 64 | 241 | 9.0 | 14.0 | 0.00 | 0.01 | 0.00 | 90 | |
| 20260903051303 | 64 | 242 | 9.0 | 14.0 | 0.00 | 0.01 | 0.00 | 91 | |
| 20260903051203 | 64 | 242 | 9.0 | 14.0 | 0.00 | 0.01 | 0.00 | 91 | |
| 20260903051103 | 64 | 242 | 9.0 | 13.0 | 0.00 | 0.01 | 0.00 | 91 | |
| 20260903051003 | 64 | 241 | 9.0 | 13.0 | 0.00 | 0.01 | 0.00 | 91 | |
| 20260903050924 | 64 | 242 | 9.0 | 13.0 | 0.00 | 0.01 | 0.00 | 91 | |
| 20260903050805 | 64 | 242 | 10.0 | 13.0 | 0.00 | 0.01 | 0.00 | 91 | |
| 20260903050703 | 64 | 242 | 10.0 | 14.0 | 0.00 | 0.01 | 0.00 | 91 | |
| 20260903050604 | 64 | 241 | 10.0 | 14.0 | 0.00 | 0.01 | 0.00 | 91 | |
| 20260903050524 | 64 | 241 | 10.0 | 14.0 | 0.00 | 0.01 | 0.00 | 91 | |
| 20260903050403 | 64 | 241 | 10.0 | 14.0 | 0.00 | 0.01 | 0.00 | 91 | |
| 20260903050303 | 64 | 242 | 10.0 | 14.0 | 0.00 | 0.01 | 0.00 | 91 | |
| 20260903050203 | 64 | 242 | 10.0 | 14.0 | 0.00 | 0.01 | 0.00 | 91 | |
| 20260903050003 | 64 | 242 | 10.0 | 14.0 | 0.00 | 0.01 | 0.00 | 91 | |
| 20260903045903 | 64 | 241 | 10.0 | 14.0 | 0.00 | 0.01 | 0.00 | 91 | |
| 20260903045803 | 64 | 241 | 10.0 | 14.0 | 0.00 | 0.01 | 0.00 | 91 | |
| 20260903045724 | 64 | 241 | 10.0 | 14.0 | 0.00 | 0.01 | 0.00 | 91 | |
| 20260903045624 | 64 | 241 | 10.0 | 14.0 | 0.00 | 0.01 | 0.00 | 91 | |
| 20260903045524 | 64 | 241 | 9.0 | 14.0 | 0.00 | 0.01 | 0.00 | 91 | |
| 20260903045403 | 64 | 241 | 9.0 | 13.0 | 0.00 | 0.01 | 0.00 | 91 | |
| 20260903045306 | 64 | 241 | 9.0 | 13.0 | 0.00 | 0.01 | 0.00 | 91 | |
| 20260903045203 | 64 | 241 | 9.0 | 13.0 | 0.00 | 0.01 | 0.00 | 91 | |
| 20260903045103 | 64 | 240 | 9.0 | 13.0 | 0.00 | 0.01 | 0.00 | 91 | |
| 20260903045003 | 64 | 240 | 9.0 | 13.0 | 0.00 | 0.01 | 0.00 | 91 | |
| 20260903044924 | 64 | 240 | 9.0 | 13.0 | 0.00 | 0.01 | 0.00 | 91 | |
| 20260903044824 | 64 | 241 | 9.0 | 13.0 | 0.00 | 0.01 | 0.00 | 91 | |
| 20260903044703 | 63 | 241 | 9.0 | 13.0 | 0.00 | 0.01 | 0.00 | 91 | |
| 20260903044624 | 64 | 241 | 9.0 | 13.0 | 0.00 | 0.01 | 0.00 | 91 | |
| 20260903044503 | 63 | 240 | 9.0 | 13.0 | 0.00 | 0.01 | 0.00 | 91 | |
| 20260903044424 | 63 | 241 | 9.0 | 13.0 | 0.00 | 0.01 | 0.00 | 91 | |
| 20260903044303 | 63 | 240 | 9.0 | 12.0 | 0.00 | 0.01 | 0.00 | 91 | |
| 20260903044203 | 63 | 240 | 8.0 | 12.0 | 0.00 | 0.01 | 0.00 | 91 | |
| 20260903044104 | 63 | 240 | 8.0 | 12.0 | 0.00 | 0.01 | 0.00 | 91 | |
| 20260903044003 | 64 | 240 | 8.0 | 12.0 | 0.00 | 0.01 | 0.00 | 91 | |
| 20260903043903 | 64 | 240 | 8.0 | 12.0 | 0.00 | 0.01 | 0.00 | 91 | |
| 20260903043803 | 64 | 239 | 8.0 | 12.0 | 0.00 | 0.01 | 0.00 | 91 | |
| 20260903043703 | 64 | 240 | 8.0 | 12.0 | 0.00 | 0.01 | 0.00 | 91 | |
| 20260903043603 | 64 | 240 | 8.0 | 12.0 | 0.00 | 0.01 | 0.00 | 91 | |
| 20260903043503 | 64 | 241 | 8.0 | 12.0 | 0.00 | 0.01 | 0.00 | 91 | |
| 20260903043404 | 64 | 242 | 7.0 | 12.0 | 0.00 | 0.01 | 0.00 | 91 | |
| 20260903043324 | 64 | 243 | 7.0 | 11.0 | 0.00 | 0.01 | 0.00 | 91 | |
| 20260903043203 | 64 | 244 | 7.0 | 11.0 | 0.00 | 0.01 | 0.00 | 91 | |
| 20260903043103 | 64 | 246 | 7.0 | 11.0 | 0.00 | 0.01 | 0.00 | 91 | |
| 20260903043003 | 64 | 247 | 7.0 | 11.0 | 0.00 | 0.01 | 0.00 | 91 | |
| 20260903042903 | 64 | 247 | 7.0 | 11.0 | 0.00 | 0.01 | 0.00 | 91 | |
| 20260903042824 | 64 | 248 | 7.0 | 11.0 | 0.00 | 0.01 | 0.00 | 91 | |
| 20260903042703 | 64 | 248 | 8.0 | 11.0 | 0.00 | 0.01 | 0.00 | 91 | |
| 20260903042624 | 64 | 248 | 8.0 | 11.0 | 0.00 | 0.01 | 0.00 | 91 | |
| 20260903042503 | 64 | 249 | 8.0 | 11.0 | 0.00 | 0.01 | 0.00 | 91 | |
| 20260903042403 | 64 | 248 | 8.0 | 12.0 | 0.00 | 0.01 | 0.00 | 91 | |
| 20260903042324 | 64 | 248 | 8.0 | 12.0 | 0.00 | 0.01 | 0.00 | 91 | |
| 20260903042224 | 64 | 247 | 9.0 | 14.0 | 0.00 | 0.01 | 0.00 | 91 | |
| 20260903042103 | 64 | 246 | 9.0 | 14.0 | 0.00 | 0.01 | 0.00 | 91 | |
| 20260903042003 | 64 | 246 | 9.0 | 14.0 | 0.00 | 0.01 | 0.00 | 91 | |
| 20260903041903 | 64 | 247 | 9.0 | 15.0 | 0.00 | 0.01 | 0.00 | 91 | |
| 20260903041803 | 63 | 246 | 10.0 | 15.0 | 0.00 | 0.01 | 0.00 | 91 | |
| 20260903041703 | 63 | 246 | 10.0 | 15.0 | 0.00 | 0.01 | 0.00 | 91 | |
| 20260903041624 | 63 | 245 | 10.0 | 15.0 | 0.00 | 0.01 | 0.00 | 91 | |
| 20260903041504 | 63 | 244 | 10.0 | 15.0 | 0.00 | 0.01 | 0.00 | 92 | |
| 20260903041404 | 63 | 244 | 10.0 | 15.0 | 0.00 | 0.01 | 0.00 | 92 | |
| 20260903041303 | 63 | 243 | 10.0 | 15.0 | 0.00 | 0.01 | 0.00 | 92 | |
| 20260903041203 | 63 | 243 | 10.0 | 15.0 | 0.00 | 0.01 | 0.00 | 92 | |
| 20260903041103 | 63 | 243 | 10.0 | 15.0 | 0.00 | 0.01 | 0.00 | 92 | |
| 20260903041003 | 63 | 242 | 10.0 | 15.0 | 0.00 | 0.01 | 0.00 | 92 | |
| 20260903040903 | 63 | 241 | 10.0 | 15.0 | 0.00 | 0.01 | 0.00 | 92 | |
| 20260903040804 | 63 | 241 | 10.0 | 15.0 | 0.00 | 0.01 | 0.00 | 92 | |
| 20260903040703 | 63 | 241 | 10.0 | 15.0 | 0.00 | 0.01 | 0.00 | 92 | |
| 20260903040603 | 63 | 241 | 10.0 | 15.0 | 0.00 | 0.01 | 0.00 | 92 | |
| 20260903040503 | 63 | 241 | 10.0 | 15.0 | 0.00 | 0.01 | 0.00 | 92 | |
| 20260903040403 | 63 | 241 | 10.0 | 13.0 | 0.00 | 0.01 | 0.00 | 92 | |
| 20260903040303 | 63 | 241 | 10.0 | 13.0 | 0.00 | 0.01 | 0.00 | 92 | |
| 20260903040203 | 63 | 241 | 9.0 | 13.0 | 0.00 | 0.01 | 0.00 | 92 | |
| 20260903040124 | 63 | 241 | 9.0 | 13.0 | 0.00 | 0.01 | 0.00 | 92 | |
| 20260903040003 | 63 | 242 | 9.0 | 13.0 | 0.00 | 0.01 | 0.00 | 92 | |
| 20260903035903 | 63 | 242 | 9.0 | 12.0 | 0.00 | 0.01 | 0.00 | 92 | |
| 20260903035824 | 63 | 242 | 9.0 | 12.0 | 0.00 | 0.01 | 0.00 | 92 | |
| 20260903035724 | 63 | 243 | 9.0 | 12.0 | 0.00 | 0.01 | 0.00 | 92 | |
| 20260903035603 | 63 | 243 | 9.0 | 13.0 | 0.00 | 0.01 | 0.00 | 92 | |
| 20260903035503 | 63 | 244 | 9.0 | 13.0 | 0.00 | 0.01 | 0.00 | 92 | |
| 20260903035424 | 63 | 244 | 9.0 | 13.0 | 0.00 | 0.01 | 0.00 | 92 | |
| 20260903035306 | 63 | 244 | 10.0 | 15.0 | 0.00 | 0.01 | 0.00 | 92 | |
| 20260903035203 | 63 | 244 | 10.0 | 15.0 | 0.00 | 0.01 | 0.00 | 92 | |
| 20260903035103 | 63 | 243 | 10.0 | 15.0 | 0.00 | 0.01 | 0.00 | 92 | |
| 20260903035024 | 63 | 243 | 10.0 | 15.0 | 0.00 | 0.01 | 0.00 | 92 | |
| 20260903034903 | 63 | 242 | 10.0 | 15.0 | 0.00 | 0.01 | 0.00 | 92 | |
| 20260903034803 | 63 | 241 | 10.0 | 15.0 | 0.00 | 0.01 | 0.00 | 92 | |
| 20260903034724 | 63 | 241 | 10.0 | 15.0 | 0.00 | 0.01 | 0.00 | 92 | |
| 20260903034603 | 63 | 240 | 10.0 | 15.0 | 0.00 | 0.01 | 0.00 | 92 | |
| 20260903034503 | 63 | 240 | 10.0 | 15.0 | 0.00 | 0.01 | 0.00 | 92 | |
| 20260903034403 | 63 | 239 | 10.0 | 15.0 | 0.00 | 0.01 | 0.00 | 92 | |
| 20260903034304 | 63 | 239 | 10.0 | 14.0 | 0.00 | 0.01 | 0.00 | 92 | |
| 20260903034203 | 63 | 239 | 10.0 | 14.0 | 0.00 | 0.01 | 0.00 | 92 | |
| 20260903034103 | 63 | 239 | 10.0 | 14.0 | 0.00 | 0.01 | 0.00 | 91 | |
| 20260903034003 | 63 | 239 | 10.0 | 14.0 | 0.00 | 0.01 | 0.00 | 91 | |
| 20260903033903 | 63 | 239 | 10.0 | 14.0 | 0.00 | 0.01 | 0.00 | 91 | |
| 20260903033803 | 63 | 239 | 10.0 | 14.0 | 0.00 | 0.01 | 0.00 | 91 | |
| 20260903033703 | 63 | 239 | 10.0 | 14.0 | 0.00 | 0.01 | 0.00 | 91 | |
| 20260903033603 | 63 | 240 | 10.0 | 14.0 | 0.00 | 0.01 | 0.00 | 91 | |
| 20260903033503 | 63 | 240 | 10.0 | 14.0 | 0.00 | 0.01 | 0.00 | 91 | |
| 20260903033404 | 63 | 241 | 11.0 | 14.0 | 0.00 | 0.01 | 0.00 | 91 | |
| 20260903033324 | 63 | 242 | 11.0 | 14.0 | 0.00 | 0.01 | 0.00 | 91 | |
| 20260903033203 | 64 | 243 | 10.0 | 14.0 | 0.00 | 0.01 | 0.00 | 91 | |
| 20260903033103 | 64 | 244 | 10.0 | 14.0 | 0.00 | 0.01 | 0.00 | 91 | |
| 20260903033003 | 64 | 244 | 10.0 | 14.0 | 0.00 | 0.01 | 0.00 | 91 | |
| 20260903032903 | 64 | 244 | 10.0 | 14.0 | 0.00 | 0.01 | 0.00 | 91 | |
| 20260903032803 | 64 | 245 | 10.0 | 14.0 | 0.00 | 0.01 | 0.00 | 91 | |
| 20260903032703 | 64 | 246 | 10.0 | 14.0 | 0.00 | 0.01 | 0.00 | 91 | |
| 20260903032603 | 64 | 247 | 10.0 | 14.0 | 0.00 | 0.01 | 0.00 | 92 | |
| 20260903032503 | 64 | 247 | 10.0 | 14.0 | 0.00 | 0.01 | 0.00 | 92 | |
| 20260903032403 | 64 | 248 | 9.0 | 14.0 | 0.00 | 0.01 | 0.00 | 92 | |
| 20260903032305 | 64 | 247 | 9.0 | 13.0 | 0.00 | 0.01 | 0.00 | 92 | |
| 20260903032203 | 64 | 248 | 9.0 | 13.0 | 0.00 | 0.01 | 0.00 | 92 | |
| 20260903032103 | 64 | 248 | 9.0 | 13.0 | 0.00 | 0.01 | 0.00 | 92 | |
| 20260903032024 | 64 | 248 | 9.0 | 13.0 | 0.00 | 0.01 | 0.00 | 92 | |
| 20260903031924 | 63 | 248 | 9.0 | 13.0 | 0.00 | 0.01 | 0.00 | 92 | |
| 20260903031803 | 63 | 249 | 10.0 | 13.0 | 0.00 | 0.01 | 0.00 | 92 | |
| 20260903031703 | 63 | 248 | 10.0 | 13.0 | 0.00 | 0.01 | 0.00 | 92 | |
| 20260903031624 | 63 | 248 | 10.0 | 13.0 | 0.00 | 0.01 | 0.00 | 92 | |
| 20260903031503 | 63 | 248 | 10.0 | 13.0 | 0.00 | 0.01 | 0.00 | 92 | |
| 20260903031403 | 63 | 247 | 10.0 | 15.0 | 0.00 | 0.01 | 0.00 | 92 | |
| 20260903031303 | 63 | 247 | 10.0 | 15.0 | 0.00 | 0.01 | 0.00 | 92 | |
| 20260903031203 | 63 | 247 | 11.0 | 15.0 | 0.00 | 0.01 | 0.00 | 92 | |
| 20260903031103 | 63 | 246 | 11.0 | 15.0 | 0.00 | 0.01 | 0.00 | 92 | |
| 20260903031003 | 63 | 246 | 11.0 | 15.0 | 0.00 | 0.01 | 0.00 | 92 | |
| 20260903030903 | 63 | 246 | 11.0 | 15.0 | 0.00 | 0.01 | 0.00 | 92 | |
| 20260903030803 | 63 | 246 | 11.0 | 15.0 | 0.00 | 0.01 | 0.00 | 92 | |
| 20260903030703 | 63 | 245 | 12.0 | 15.0 | 0.00 | 0.01 | 0.00 | 92 | |
| 20260903030603 | 64 | 245 | 12.0 | 15.0 | 0.00 | 0.01 | 0.00 | 92 | |
| 20260903030503 | 63 | 245 | 12.0 | 16.0 | 0.00 | 0.01 | 0.00 | 92 | |
| 20260903030403 | 63 | 244 | 12.0 | 18.0 | 0.00 | 0.01 | 0.00 | 92 | |
| 20260903030303 | 63 | 244 | 12.0 | 18.0 | 0.00 | 0.01 | 0.00 | 92 | |
| 20260903030203 | 63 | 244 | 12.0 | 18.0 | 0.00 | 0.01 | 0.00 | 92 | |
| 20260903030103 | 63 | 244 | 12.0 | 18.0 | 0.00 | 0.01 | 0.00 | 92 | |
| 20260903030003 | 63 | 243 | 12.0 | 18.0 | 0.00 | 0.01 | 0.00 | 92 | |
| 20260903025904 | 63 | 243 | 12.0 | 18.0 | 0.00 | 0.01 | 0.00 | 92 | |
| 20260903025803 | 63 | 242 | 12.0 | 18.0 | 0.00 | 0.01 | 0.00 | 92 | |
| 20260903025703 | 63 | 242 | 12.0 | 18.0 | 0.00 | 0.01 | 0.00 | 92 | |
| 20260903025603 | 63 | 241 | 12.0 | 18.0 | 0.00 | 0.01 | 0.00 | 92 | |
| 20260903025503 | 63 | 241 | 12.0 | 18.0 | 0.00 | 0.01 | 0.00 | 92 | |
| 20260903025403 | 63 | 242 | 12.0 | 18.0 | 0.00 | 0.01 | 0.00 | 92 | |
| 20260903025305 | 63 | 241 | 12.0 | 18.0 | 0.00 | 0.01 | 0.00 | 92 | |
| 20260903025203 | 63 | 241 | 12.0 | 18.0 | 0.00 | 0.01 | 0.00 | 92 | |
| 20260903025103 | 63 | 240 | 13.0 | 18.0 | 0.00 | 0.01 | 0.00 | 92 | |
| 20260903025003 | 63 | 240 | 12.0 | 18.0 | 0.00 | 0.01 | 0.00 | 92 | |
| 20260903024903 | 63 | 240 | 12.0 | 18.0 | 0.00 | 0.01 | 0.00 | 92 | |
| 20260903024803 | 63 | 241 | 12.0 | 18.0 | 0.00 | 0.01 | 0.00 | 92 | |
| 20260903024703 | 63 | 241 | 12.0 | 18.0 | 0.00 | 0.01 | 0.00 | 92 | |
| 20260903024603 | 63 | 241 | 12.0 | 18.0 | 0.00 | 0.01 | 0.00 | 92 | |
| 20260903024503 | 63 | 240 | 12.0 | 19.0 | 0.00 | 0.01 | 0.00 | 92 | |
| 20260903024424 | 63 | 240 | 12.0 | 19.0 | 0.00 | 0.01 | 0.00 | 92 | |
| 20260903024324 | 63 | 240 | 12.0 | 19.0 | 0.00 | 0.01 | 0.00 | 92 | |
| 20260903024224 | 63 | 240 | 12.0 | 19.0 | 0.00 | 0.01 | 0.00 | 92 | |
| 20260903024103 | 63 | 239 | 12.0 | 19.0 | 0.00 | 0.01 | 0.00 | 92 | |
| 20260903024003 | 63 | 238 | 12.0 | 19.0 | 0.00 | 0.01 | 0.00 | 92 | |
| 20260903023924 | 63 | 238 | 12.0 | 19.0 | 0.00 | 0.01 | 0.00 | 92 | |
| 20260903023803 | 63 | 238 | 12.0 | 19.0 | 0.00 | 0.01 | 0.00 | 92 | |
| 20260903023703 | 63 | 237 | 12.0 | 19.0 | 0.00 | 0.01 | 0.00 | 92 | |
| 20260903023625 | 63 | 236 | 12.0 | 19.0 | 0.00 | 0.01 | 0.00 | 92 | |
| 20260903023503 | 63 | 237 | 11.0 | 16.0 | 0.00 | 0.01 | 0.00 | 92 | |
| 20260903023403 | 63 | 237 | 11.0 | 15.0 | 0.00 | 0.01 | 0.00 | 92 | |
| 20260903023303 | 63 | 237 | 11.0 | 15.0 | 0.00 | 0.01 | 0.00 | 91 | |
| 20260903023203 | 63 | 237 | 11.0 | 15.0 | 0.00 | 0.01 | 0.00 | 91 | |
| 20260903023103 | 63 | 238 | 11.0 | 15.0 | 0.00 | 0.01 | 0.00 | 91 | |
| 20260903023024 | 63 | 238 | 11.0 | 15.0 | 0.00 | 0.01 | 0.00 | 91 | |
| 20260903022903 | 64 | 239 | 12.0 | 16.0 | 0.00 | 0.01 | 0.00 | 92 | |
| 20260903022803 | 64 | 240 | 12.0 | 16.0 | 0.00 | 0.01 | 0.00 | 91 | |
| 20260903022704 | 64 | 241 | 12.0 | 16.0 | 0.00 | 0.01 | 0.00 | 91 | |
| 20260903022603 | 64 | 242 | 12.0 | 16.0 | 0.00 | 0.01 | 0.00 | 91 | |
| 20260903022503 | 64 | 242 | 12.0 | 16.0 | 0.00 | 0.01 | 0.00 | 91 | |
| 20260903022403 | 64 | 242 | 12.0 | 16.0 | 0.00 | 0.01 | 0.00 | 91 | |
| 20260903022306 | 64 | 243 | 12.0 | 16.0 | 0.00 | 0.01 | 0.00 | 91 | |
| 20260903022203 | 64 | 243 | 12.0 | 16.0 | 0.00 | 0.01 | 0.00 | 91 | |
| 20260903022124 | 64 | 243 | 12.0 | 16.0 | 0.00 | 0.01 | 0.00 | 91 | |
| 20260903022003 | 64 | 244 | 12.0 | 16.0 | 0.00 | 0.01 | 0.00 | 92 | |
| 20260903021903 | 64 | 244 | 12.0 | 16.0 | 0.00 | 0.01 | 0.00 | 92 | |
| 20260903021803 | 64 | 244 | 12.0 | 16.0 | 0.00 | 0.01 | 0.00 | 92 | |
| 20260903021703 | 64 | 244 | 12.0 | 16.0 | 0.00 | 0.01 | 0.00 | 92 | |
| 20260903021603 | 64 | 244 | 12.0 | 16.0 | 0.00 | 0.01 | 0.00 | 92 | |
| 20260903021503 | 64 | 243 | 12.0 | 16.0 | 0.00 | 0.01 | 0.00 | 92 | |
| 20260903021403 | 64 | 243 | 12.0 | 16.0 | 0.00 | 0.01 | 0.00 | 92 | |
| 20260903021324 | 64 | 244 | 12.0 | 16.0 | 0.00 | 0.01 | 0.00 | 92 | |
| 20260903021203 | 64 | 243 | 12.0 | 16.0 | 0.00 | 0.01 | 0.00 | 92 | |
| 20260903021103 | 64 | 243 | 12.0 | 16.0 | 0.00 | 0.01 | 0.00 | 92 | |
| 20260903021003 | 64 | 243 | 12.0 | 16.0 | 0.00 | 0.01 | 0.00 | 92 | |
| 20260903020903 | 64 | 242 | 12.0 | 16.0 | 0.00 | 0.01 | 0.00 | 92 | |
| 20260903020803 | 64 | 241 | 12.0 | 16.0 | 0.00 | 0.01 | 0.00 | 92 | |
| 20260903020703 | 64 | 241 | 12.0 | 16.0 | 0.00 | 0.01 | 0.00 | 92 | |
| 20260903020624 | 64 | 241 | 12.0 | 16.0 | 0.00 | 0.01 | 0.00 | 92 | |
| 20260903020503 | 64 | 240 | 11.0 | 16.0 | 0.00 | 0.01 | 0.00 | 92 | |
| 20260903020403 | 63 | 241 | 11.0 | 16.0 | 0.00 | 0.01 | 0.00 | 92 | |
| 20260903020303 | 63 | 241 | 11.0 | 16.0 | 0.00 | 0.01 | 0.00 | 92 | |
| 20260903020203 | 63 | 241 | 11.0 | 16.0 | 0.00 | 0.01 | 0.00 | 92 | |
| 20260903020003 | 63 | 241 | 11.0 | 16.0 | 0.00 | 0.01 | 0.00 | 92 | |
| 20260903015903 | 63 | 241 | 12.0 | 16.0 | 0.00 | 0.01 | 0.00 | 92 | |
| 20260903015824 | 63 | 241 | 12.0 | 16.0 | 0.00 | 0.01 | 0.00 | 92 | |
| 20260903015703 | 63 | 242 | 12.0 | 16.0 | 0.00 | 0.01 | 0.00 | 92 | |
| 20260903015603 | 63 | 242 | 12.0 | 16.0 | 0.00 | 0.01 | 0.00 | 92 | |
| 20260903015524 | 63 | 242 | 12.0 | 16.0 | 0.00 | 0.01 | 0.00 | 92 | |
| 20260903015403 | 63 | 242 | 12.0 | 15.0 | 0.00 | 0.01 | 0.00 | 92 | |
| 20260903015305 | 63 | 242 | 12.0 | 18.0 | 0.00 | 0.01 | 0.00 | 92 | |
| 20260903015203 | 63 | 242 | 12.0 | 18.0 | 0.00 | 0.01 | 0.00 | 92 | |
| 20260903015103 | 63 | 241 | 11.0 | 18.0 | 0.00 | 0.01 | 0.00 | 92 | |
| 20260903015003 | 63 | 240 | 12.0 | 18.0 | 0.00 | 0.01 | 0.00 | 92 | |
| 20260903014924 | 63 | 240 | 12.0 | 18.0 | 0.00 | 0.01 | 0.00 | 92 | |
| 20260903014803 | 63 | 239 | 11.0 | 18.0 | 0.00 | 0.01 | 0.00 | 92 | |
| 20260903014703 | 63 | 239 | 11.0 | 18.0 | 0.00 | 0.01 | 0.00 | 92 | |
| 20260903014624 | 63 | 239 | 11.0 | 18.0 | 0.00 | 0.01 | 0.00 | 92 | |
| 20260903014503 | 63 | 238 | 11.0 | 18.0 | 0.00 | 0.01 | 0.00 | 92 | |
| 20260903014403 | 63 | 237 | 11.0 | 18.0 | 0.00 | 0.01 | 0.00 | 92 | |
| 20260903014304 | 63 | 237 | 11.0 | 16.0 | 0.00 | 0.01 | 0.00 | 92 | |
| 20260903014203 | 63 | 236 | 11.0 | 16.0 | 0.00 | 0.01 | 0.00 | 92 | |
| 20260903014124 | 63 | 237 | 11.0 | 16.0 | 0.00 | 0.01 | 0.00 | 92 | |
| 20260903014024 | 63 | 236 | 12.0 | 16.0 | 0.00 | 0.01 | 0.00 | 92 | |
| 20260903013903 | 63 | 236 | 12.0 | 16.0 | 0.00 | 0.01 | 0.00 | 92 | |
| 20260903013803 | 63 | 235 | 12.0 | 16.0 | 0.00 | 0.01 | 0.00 | 92 | |
| 20260903013703 | 63 | 235 | 12.0 | 16.0 | 0.00 | 0.01 | 0.00 | 92 | |
| 20260903013603 | 63 | 234 | 12.0 | 16.0 | 0.00 | 0.01 | 0.00 | 92 | |
| 20260903013524 | 63 | 234 | 12.0 | 18.0 | 0.00 | 0.01 | 0.00 | 92 | |
| 20260903013424 | 63 | 234 | 12.0 | 18.0 | 0.00 | 0.01 | 0.00 | 92 | |
| 20260903013324 | 63 | 234 | 12.0 | 18.0 | 0.00 | 0.01 | 0.00 | 92 | |
| 20260903013224 | 63 | 233 | 11.0 | 18.0 | 0.00 | 0.01 | 0.00 | 92 | |
| 20260903013103 | 63 | 233 | 11.0 | 18.0 | 0.00 | 0.01 | 0.00 | 91 | |
| 20260903013003 | 63 | 233 | 11.0 | 18.0 | 0.00 | 0.01 | 0.00 | 91 | |
| 20260903012903 | 63 | 232 | 11.0 | 18.0 | 0.00 | 0.01 | 0.00 | 91 | |
| 20260903012803 | 63 | 232 | 11.0 | 18.0 | 0.00 | 0.01 | 0.00 | 91 | |
| 20260903012703 | 63 | 232 | 11.0 | 18.0 | 0.00 | 0.01 | 0.00 | 91 | |
| 20260903012624 | 63 | 232 | 11.0 | 18.0 | 0.00 | 0.01 | 0.00 | 91 | |
| 20260903012524 | 63 | 231 | 11.0 | 14.0 | 0.00 | 0.01 | 0.00 | 91 | |
| 20260903012403 | 63 | 231 | 11.0 | 14.0 | 0.00 | 0.01 | 0.00 | 91 | |
| 20260903012306 | 63 | 231 | 11.0 | 14.0 | 0.00 | 0.01 | 0.00 | 91 | |
| 20260903012203 | 63 | 231 | 11.0 | 14.0 | 0.00 | 0.01 | 0.00 | 91 | |
| 20260903012103 | 63 | 231 | 10.0 | 14.0 | 0.00 | 0.01 | 0.00 | 91 | |
| 20260903012003 | 63 | 231 | 10.0 | 14.0 | 0.00 | 0.01 | 0.00 | 91 | |
| 20260903011903 | 63 | 231 | 11.0 | 15.0 | 0.00 | 0.01 | 0.00 | 91 | |
| 20260903011803 | 63 | 232 | 11.0 | 15.0 | 0.00 | 0.01 | 0.00 | 91 | |
| 20260903011703 | 63 | 232 | 11.0 | 15.0 | 0.00 | 0.01 | 0.00 | 91 | |
| 20260903011603 | 63 | 232 | 11.0 | 15.0 | 0.00 | 0.01 | 0.00 | 91 | |
| 20260903011503 | 63 | 232 | 11.0 | 15.0 | 0.00 | 0.01 | 0.00 | 91 | |
| 20260903011403 | 63 | 232 | 11.0 | 15.0 | 0.00 | 0.01 | 0.00 | 91 | |
| 20260903011303 | 63 | 232 | 11.0 | 15.0 | 0.00 | 0.01 | 0.00 | 91 | |
| 20260903011203 | 63 | 232 | 11.0 | 15.0 | 0.00 | 0.01 | 0.00 | 91 | |
| 20260903011103 | 63 | 232 | 11.0 | 15.0 | 0.00 | 0.01 | 0.00 | 91 | |
| 20260903011003 | 63 | 231 | 12.0 | 16.0 | 0.00 | 0.01 | 0.00 | 91 | |
| 20260903010903 | 63 | 230 | 12.0 | 16.0 | 0.00 | 0.01 | 0.00 | 91 | |
| 20260903010824 | 63 | 230 | 12.0 | 16.0 | 0.00 | 0.01 | 0.00 | 91 | |
| 20260903010703 | 63 | 229 | 12.0 | 16.0 | 0.00 | 0.01 | 0.00 | 91 | |
| 20260903010603 | 63 | 229 | 12.0 | 16.0 | 0.00 | 0.01 | 0.00 | 91 | |
| 20260903010503 | 63 | 228 | 12.0 | 16.0 | 0.00 | 0.01 | 0.00 | 91 | |
| 20260903010403 | 63 | 227 | 12.0 | 16.0 | 0.00 | 0.01 | 0.00 | 91 | |
| 20260903010303 | 63 | 226 | 12.0 | 16.0 | 0.00 | 0.01 | 0.00 | 91 | |
| 20260903010203 | 63 | 225 | 12.0 | 16.0 | 0.00 | 0.01 | 0.00 | 91 | |
| 20260903010003 | 63 | 223 | 12.0 | 16.0 | 0.00 | 0.01 | 0.00 | 91 | |
| 20260903005924 | 63 | 222 | 12.0 | 16.0 | 0.00 | 0.01 | 0.00 | 91 | |
| 20260903005824 | 63 | 221 | 12.0 | 16.0 | 0.00 | 0.01 | 0.00 | 91 | |
| 20260903005704 | 63 | 220 | 11.0 | 16.0 | 0.00 | 0.01 | 0.00 | 91 | |
| 20260903005624 | 63 | 219 | 11.0 | 16.0 | 0.00 | 0.01 | 0.00 | 91 | |
| 20260903005503 | 63 | 218 | 11.0 | 15.0 | 0.00 | 0.01 | 0.00 | 91 | |
| 20260903005403 | 63 | 218 | 11.0 | 14.0 | 0.00 | 0.01 | 0.00 | 90 | |
| 20260903005306 | 63 | 218 | 11.0 | 15.0 | 0.00 | 0.01 | 0.00 | 90 | |
| 20260903005203 | 63 | 218 | 12.0 | 15.0 | 0.00 | 0.01 | 0.00 | 90 | |
| 20260903005103 | 63 | 219 | 12.0 | 15.0 | 0.00 | 0.01 | 0.00 | 90 | |
| 20260903005003 | 63 | 219 | 12.0 | 15.0 | 0.00 | 0.01 | 0.00 | 90 | |
| 20260903004903 | 63 | 220 | 12.0 | 15.0 | 0.00 | 0.01 | 0.00 | 90 | |
| 20260903004803 | 63 | 221 | 12.0 | 15.0 | 0.00 | 0.01 | 0.00 | 90 | |
| 20260903004703 | 63 | 222 | 12.0 | 16.0 | 0.00 | 0.01 | 0.00 | 90 | |
| 20260903004603 | 63 | 223 | 12.0 | 16.0 | 0.00 | 0.01 | 0.00 | 90 | |
| 20260903004503 | 63 | 224 | 12.0 | 16.0 | 0.00 | 0.01 | 0.00 | 90 | |
| 20260903004403 | 64 | 224 | 13.0 | 16.0 | 0.00 | 0.01 | 0.00 | 90 | |
| 20260903004303 | 64 | 225 | 13.0 | 16.0 | 0.00 | 0.01 | 0.00 | 90 | |
| 20260903004203 | 63 | 225 | 13.0 | 18.0 | 0.00 | 0.01 | 0.00 | 90 | |
| 20260903004103 | 63 | 225 | 13.0 | 18.0 | 0.00 | 0.01 | 0.00 | 90 | |
| 20260903004003 | 63 | 225 | 13.0 | 18.0 | 0.00 | 0.01 | 0.00 | 90 | |
| 20260903003903 | 63 | 225 | 13.0 | 18.0 | 0.00 | 0.01 | 0.00 | 90 | |
| 20260903003803 | 63 | 225 | 13.0 | 18.0 | 0.00 | 0.01 | 0.00 | 90 | |
| 20260903003703 | 63 | 225 | 13.0 | 18.0 | 0.00 | 0.01 | 0.00 | 90 | |
| 20260903003603 | 63 | 225 | 13.0 | 18.0 | 0.00 | 0.01 | 0.00 | 90 | |
| 20260903003503 | 64 | 225 | 13.0 | 18.0 | 0.00 | 0.01 | 0.00 | 90 | |
| 20260903003403 | 64 | 224 | 13.0 | 18.0 | 0.00 | 0.01 | 0.00 | 90 | |
| 20260903003303 | 64 | 224 | 13.0 | 18.0 | 0.00 | 0.01 | 0.00 | 90 | |
| 20260903003224 | 64 | 223 | 13.0 | 18.0 | 0.00 | 0.01 | 0.00 | 90 | |
| 20260903003103 | 64 | 224 | 13.0 | 18.0 | 0.00 | 0.01 | 0.00 | 90 | |
| 20260903003003 | 64 | 224 | 13.0 | 18.0 | 0.00 | 0.01 | 0.00 | 90 | |
| 20260903002924 | 64 | 224 | 13.0 | 18.0 | 0.00 | 0.01 | 0.00 | 90 | |
| 20260903002803 | 64 | 224 | 13.0 | 18.0 | 0.00 | 0.01 | 0.00 | 90 | |
| 20260903002703 | 64 | 224 | 13.0 | 18.0 | 0.00 | 0.01 | 0.00 | 90 | |
| 20260903002624 | 64 | 224 | 13.0 | 18.0 | 0.00 | 0.01 | 0.00 | 90 | |
| 20260903002503 | 64 | 224 | 13.0 | 18.0 | 0.00 | 0.01 | 0.00 | 90 | |
| 20260903002424 | 64 | 224 | 13.0 | 18.0 | 0.00 | 0.01 | 0.00 | 90 | |
| 20260903002306 | 64 | 224 | 13.0 | 19.0 | 0.00 | 0.01 | 0.00 | 90 | |
| 20260903002203 | 64 | 225 | 13.0 | 19.0 | 0.00 | 0.01 | 0.00 | 90 | |
| 20260903002103 | 64 | 225 | 13.0 | 19.0 | 0.00 | 0.01 | 0.00 | 90 | |
| 20260903002003 | 64 | 224 | 13.0 | 19.0 | 0.00 | 0.01 | 0.00 | 90 | |
| 20260903001903 | 64 | 223 | 13.0 | 19.0 | 0.00 | 0.01 | 0.00 | 90 | |
| 20260903001803 | 64 | 223 | 13.0 | 19.0 | 0.00 | 0.01 | 0.00 | 90 | |
| 20260903001703 | 64 | 223 | 13.0 | 19.0 | 0.00 | 0.01 | 0.00 | 90 | |
| 20260903001624 | 64 | 223 | 13.0 | 19.0 | 0.00 | 0.01 | 0.00 | 90 | |
| 20260903001503 | 64 | 223 | 12.0 | 19.0 | 0.00 | 0.01 | 0.00 | 90 | |
| 20260903001403 | 64 | 223 | 12.0 | 19.0 | 0.00 | 0.01 | 0.00 | 90 | |
| 20260903001324 | 64 | 223 | 12.0 | 19.0 | 0.00 | 0.01 | 0.00 | 90 | |
| 20260903001203 | 64 | 224 | 11.0 | 19.0 | 0.00 | 0.01 | 0.00 | 90 | |
| 20260903001103 | 64 | 224 | 11.0 | 19.0 | 0.00 | 0.01 | 0.00 | 90 | |
| 20260903001003 | 63 | 225 | 10.0 | 19.0 | 0.00 | 0.01 | 0.00 | 90 | |
| 20260903000903 | 63 | 227 | 10.0 | 14.0 | 0.00 | 0.01 | 0.00 | 90 | |
| 20260903000803 | 64 | 228 | 10.0 | 14.0 | 0.00 | 0.01 | 0.00 | 90 | |
| 20260903000724 | 64 | 229 | 10.0 | 14.0 | 0.00 | 0.01 | 0.00 | 90 | |
| 20260903000603 | 64 | 230 | 9.0 | 14.0 | 0.00 | 0.01 | 0.00 | 90 | |
| 20260903000503 | 64 | 231 | 9.0 | 14.0 | 0.00 | 0.01 | 0.00 | 90 | |
| 20260903000404 | 64 | 232 | 9.0 | 14.0 | 0.00 | 0.01 | 0.00 | 90 | |
| 20260903000303 | 64 | 234 | 9.0 | 14.0 | 0.00 | 0.01 | 0.00 | 90 | |
| 20260903000226 | 64 | 234 | 9.0 | 13.0 | 0.00 | 0.01 | 0.00 | 90 | |
| 20260903000124 | 64 | 235 | 9.0 | 14.0 | 0.00 | 0.01 | 0.00 | 90 | |
| 20260903000003 | 64 | 235 | 10.0 | 14.0 | 0.00 | 0.01 | 0.00 | 90 | |
| 20260902235903 | 64 | 235 | 10.0 | 14.0 | 0.00 | 0.01 | 0.00 | 90 | |
| 20260902235803 | 64 | 235 | 10.0 | 14.0 | 0.00 | 0.01 | 0.00 | 90 | |
| 20260902235724 | 64 | 235 | 10.0 | 14.0 | 0.00 | 0.01 | 0.00 | 90 | |
| 20260902235624 | 64 | 235 | 10.0 | 14.0 | 0.00 | 0.01 | 0.00 | 90 | |
| 20260902235503 | 64 | 235 | 11.0 | 15.0 | 0.00 | 0.01 | 0.00 | 90 | |
| 20260902235404 | 64 | 234 | 12.0 | 18.0 | 0.00 | 0.01 | 0.00 | 90 | |
| 20260902235324 | 64 | 234 | 12.0 | 20.0 | 0.00 | 0.01 | 0.00 | 90 | |
| 20260902235203 | 64 | 234 | 11.0 | 20.0 | 0.00 | 0.01 | 0.00 | 90 | |
| 20260902235103 | 64 | 234 | 12.0 | 20.0 | 0.00 | 0.01 | 0.00 | 89 | |
| 20260902235003 | 64 | 234 | 12.0 | 20.0 | 0.00 | 0.01 | 0.00 | 89 | |
| 20260902234903 | 64 | 234 | 12.0 | 20.0 | 0.00 | 0.01 | 0.00 | 89 | |
| 20260902234803 | 64 | 233 | 12.0 | 20.0 | 0.00 | 0.01 | 0.00 | 90 | |
| 20260902234724 | 64 | 233 | 12.0 | 20.0 | 0.00 | 0.01 | 0.00 | 90 | |
| 20260902234603 | 64 | 233 | 12.0 | 20.0 | 0.00 | 0.01 | 0.00 | 90 | |
| 20260902234503 | 64 | 233 | 12.0 | 20.0 | 0.00 | 0.01 | 0.00 | 90 | |
| 20260902234403 | 64 | 233 | 11.0 | 20.0 | 0.00 | 0.01 | 0.00 | 90 | |
| 20260902234303 | 64 | 233 | 12.0 | 18.0 | 0.00 | 0.01 | 0.00 | 90 | |
| 20260902234203 | 64 | 232 | 12.0 | 18.0 | 0.00 | 0.01 | 0.00 | 90 | |
| 20260902234103 | 64 | 230 | 12.0 | 18.0 | 0.00 | 0.01 | 0.00 | 90 | |
| 20260902234004 | 64 | 230 | 12.0 | 18.0 | 0.00 | 0.01 | 0.00 | 90 | |
| 20260902233924 | 64 | 229 | 12.0 | 18.0 | 0.00 | 0.01 | 0.00 | 90 | |
| 20260902233803 | 64 | 230 | 12.0 | 16.0 | 0.00 | 0.01 | 0.00 | 90 | |
| 20260902233724 | 64 | 229 | 12.0 | 16.0 | 0.00 | 0.01 | 0.00 | 90 | |
| 20260902233603 | 64 | 229 | 12.0 | 18.0 | 0.00 | 0.01 | 0.00 | 90 | |
| 20260902233503 | 64 | 228 | 12.0 | 18.0 | 0.00 | 0.01 | 0.00 | 90 | |
| 20260902233403 | 64 | 228 | 12.0 | 18.0 | 0.00 | 0.01 | 0.00 | 90 | |
| 20260902233303 | 64 | 228 | 12.0 | 18.0 | 0.00 | 0.01 | 0.00 | 90 | |
| 20260902233203 | 64 | 227 | 12.0 | 18.0 | 0.00 | 0.01 | 0.00 | 90 | |
| 20260902233124 | 64 | 227 | 12.0 | 18.0 | 0.00 | 0.01 | 0.00 | 90 | |
| 20260902233003 | 64 | 228 | 12.0 | 18.0 | 0.00 | 0.01 | 0.00 | 90 | |
| 20260902232903 | 64 | 227 | 12.0 | 18.0 | 0.00 | 0.01 | 0.00 | 90 | |
| 20260902232803 | 64 | 227 | 12.0 | 18.0 | 0.00 | 0.01 | 0.00 | 90 | |
| 20260902232703 | 64 | 227 | 12.0 | 18.0 | 0.00 | 0.01 | 0.00 | 90 | |
| 20260902232625 | 64 | 227 | 12.0 | 18.0 | 0.00 | 0.01 | 0.00 | 90 | |
| 20260902232503 | 64 | 227 | 12.0 | 18.0 | 0.00 | 0.01 | 0.00 | 90 | |
| 20260902232403 | 64 | 226 | 12.0 | 18.0 | 0.00 | 0.01 | 0.00 | 90 | |
| 20260902232306 | 64 | 226 | 11.0 | 18.0 | 0.00 | 0.01 | 0.00 | 90 | |
| 20260902232203 | 64 | 226 | 11.0 | 18.0 | 0.00 | 0.01 | 0.00 | 90 | |
| 20260902232103 | 64 | 226 | 11.0 | 18.0 | 0.00 | 0.01 | 0.00 | 90 | |
| 20260902232004 | 64 | 226 | 10.0 | 18.0 | 0.00 | 0.01 | 0.00 | 90 | |
| 20260902231903 | 64 | 226 | 10.0 | 18.0 | 0.00 | 0.01 | 0.00 | 90 | |
| 20260902231803 | 64 | 226 | 10.0 | 14.0 | 0.00 | 0.01 | 0.00 | 90 | |
| 20260902231703 | 64 | 226 | 10.0 | 14.0 | 0.00 | 0.01 | 0.00 | 90 | |
| 20260902231603 | 64 | 226 | 10.0 | 14.0 | 0.00 | 0.01 | 0.00 | 90 | |
| 20260902231503 | 63 | 227 | 10.0 | 14.0 | 0.00 | 0.01 | 0.00 | 90 | |
| 20260902231403 | 63 | 227 | 10.0 | 13.0 | 0.00 | 0.01 | 0.00 | 90 | |
| 20260902231303 | 63 | 227 | 10.0 | 13.0 | 0.00 | 0.01 | 0.00 | 90 | |
| 20260902231203 | 63 | 227 | 10.0 | 13.0 | 0.00 | 0.01 | 0.00 | 90 | |
| 20260902231103 | 63 | 227 | 10.0 | 13.0 | 0.00 | 0.01 | 0.00 | 90 | |
| 20260902231003 | 63 | 227 | 10.0 | 13.0 | 0.00 | 0.01 | 0.00 | 90 | |
| 20260902230903 | 64 | 227 | 10.0 | 14.0 | 0.00 | 0.01 | 0.00 | 90 | |
| 20260902230803 | 63 | 227 | 10.0 | 14.0 | 0.00 | 0.01 | 0.00 | 90 | |
| 20260902230703 | 63 | 228 | 10.0 | 14.0 | 0.00 | 0.01 | 0.00 | 90 | |
| 20260902230603 | 63 | 229 | 10.0 | 14.0 | 0.00 | 0.01 | 0.00 | 90 | |
| 20260902230503 | 64 | 230 | 11.0 | 14.0 | 0.00 | 0.01 | 0.00 | 90 | |
| 20260902230403 | 64 | 231 | 11.0 | 16.0 | 0.00 | 0.01 | 0.00 | 90 | |
| 20260902230303 | 64 | 232 | 11.0 | 16.0 | 0.00 | 0.01 | 0.00 | 90 | |
| 20260902230225 | 64 | 233 | 11.0 | 16.0 | 0.00 | 0.01 | 0.00 | 90 | |
| 20260902230003 | 64 | 236 | 11.0 | 16.0 | 0.00 | 0.01 | 0.00 | 90 | |
| 20260902225924 | 64 | 237 | 11.0 | 16.0 | 0.00 | 0.01 | 0.01 | 90 | |
| 20260902225803 | 64 | 238 | 11.0 | 16.0 | 0.00 | 0.01 | 0.01 | 90 | |
| 20260902225703 | 64 | 239 | 12.0 | 19.0 | 0.00 | 0.01 | 0.01 | 90 | |
| 20260902225603 | 64 | 239 | 12.0 | 19.0 | 0.00 | 0.01 | 0.01 | 90 | |
| 20260902225503 | 64 | 240 | 11.0 | 19.0 | 0.00 | 0.01 | 0.01 | 90 | |
| 20260902225403 | 64 | 239 | 11.0 | 19.0 | 0.00 | 0.01 | 0.01 | 90 | |
| 20260902225306 | 64 | 238 | 12.0 | 19.0 | 0.00 | 0.01 | 0.01 | 89 | |
| 20260902225203 | 64 | 238 | 12.0 | 19.0 | 0.00 | 0.01 | 0.01 | 89 | |
| 20260902225104 | 64 | 237 | 12.0 | 19.0 | 0.00 | 0.01 | 0.01 | 90 | |
| 20260902225003 | 64 | 235 | 12.0 | 19.0 | 0.00 | 0.01 | 0.01 | 90 | |
| 20260902224903 | 64 | 235 | 12.0 | 19.0 | 0.00 | 0.01 | 0.01 | 90 | |
| 20260902224803 | 64 | 234 | 11.0 | 19.0 | 0.00 | 0.01 | 0.01 | 90 | |
| 20260902224704 | 64 | 232 | 11.0 | 16.0 | 0.00 | 0.01 | 0.01 | 90 | |
| 20260902224603 | 64 | 232 | 11.0 | 15.0 | 0.00 | 0.01 | 0.01 | 90 | |
| 20260902224503 | 64 | 231 | 11.0 | 15.0 | 0.00 | 0.01 | 0.01 | 90 | |
| 20260902224403 | 64 | 231 | 11.0 | 15.0 | 0.00 | 0.01 | 0.01 | 90 | |
| 20260902224303 | 64 | 231 | 11.0 | 16.0 | 0.00 | 0.01 | 0.01 | 90 | |
| 20260902224203 | 64 | 231 | 11.0 | 16.0 | 0.00 | 0.01 | 0.01 | 90 | |
| 20260902224103 | 64 | 231 | 12.0 | 16.0 | 0.00 | 0.01 | 0.01 | 90 | |
| 20260902224003 | 64 | 231 | 12.0 | 16.0 | 0.00 | 0.01 | 0.01 | 90 | |
| 20260902223924 | 64 | 232 | 12.0 | 16.0 | 0.00 | 0.01 | 0.01 | 90 | |
| 20260902223824 | 64 | 233 | 12.0 | 16.0 | 0.00 | 0.01 | 0.01 | 90 | |
| 20260902223703 | 64 | 234 | 12.0 | 16.0 | 0.00 | 0.01 | 0.01 | 90 | |
| 20260902223603 | 64 | 234 | 12.0 | 16.0 | 0.00 | 0.01 | 0.01 | 90 | |
| 20260902223503 | 64 | 235 | 12.0 | 16.0 | 0.00 | 0.01 | 0.01 | 90 | |
| 20260902223403 | 64 | 236 | 12.0 | 16.0 | 0.00 | 0.01 | 0.01 | 90 | |
| 20260902223324 | 64 | 236 | 12.0 | 16.0 | 0.00 | 0.01 | 0.01 | 90 | |
| 20260902223224 | 64 | 237 | 12.0 | 16.0 | 0.00 | 0.01 | 0.01 | 90 | |
| 20260902223103 | 64 | 238 | 12.0 | 16.0 | 0.00 | 0.01 | 0.01 | 90 | |
| 20260902223003 | 64 | 238 | 12.0 | 16.0 | 0.00 | 0.01 | 0.01 | 90 | |
| 20260902222903 | 64 | 238 | 13.0 | 16.0 | 0.00 | 0.01 | 0.01 | 90 | |
| 20260902222803 | 64 | 239 | 13.0 | 18.0 | 0.00 | 0.01 | 0.01 | 90 | |
| 20260902222703 | 64 | 239 | 13.0 | 18.0 | 0.00 | 0.01 | 0.01 | 90 | |
| 20260902222604 | 64 | 238 | 12.0 | 18.0 | 0.00 | 0.01 | 0.01 | 90 | |
| 20260902222503 | 64 | 238 | 13.0 | 18.0 | 0.00 | 0.01 | 0.01 | 90 | |
| 20260902222403 | 64 | 238 | 13.0 | 18.0 | 0.00 | 0.01 | 0.01 | 90 | |
| 20260902222305 | 64 | 238 | 13.0 | 18.0 | 0.00 | 0.01 | 0.01 | 90 | |
| 20260902222203 | 64 | 238 | 13.0 | 18.0 | 0.00 | 0.01 | 0.01 | 90 | |
| 20260902222103 | 64 | 237 | 13.0 | 18.0 | 0.00 | 0.01 | 0.01 | 90 | |
| 20260902222004 | 64 | 237 | 13.0 | 18.0 | 0.00 | 0.01 | 0.01 | 90 | |
| 20260902221903 | 64 | 237 | 13.0 | 18.0 | 0.00 | 0.01 | 0.01 | 90 | |
| 20260902221803 | 64 | 237 | 13.0 | 18.0 | 0.00 | 0.01 | 0.01 | 90 | |
| 20260902221704 | 64 | 237 | 13.0 | 18.0 | 0.00 | 0.01 | 0.01 | 90 | |
| 20260902221603 | 64 | 238 | 13.0 | 18.0 | 0.00 | 0.01 | 0.01 | 90 | |
| 20260902221503 | 64 | 238 | 13.0 | 18.0 | 0.00 | 0.01 | 0.01 | 90 | |
| 20260902221403 | 64 | 238 | 13.0 | 18.0 | 0.00 | 0.01 | 0.01 | 91 | |
| 20260902221324 | 64 | 239 | 13.0 | 16.0 | 0.00 | 0.01 | 0.01 | 91 | |
| 20260902221203 | 64 | 239 | 13.0 | 16.0 | 0.00 | 0.01 | 0.01 | 90 | |
| 20260902221124 | 64 | 239 | 13.0 | 16.0 | 0.00 | 0.01 | 0.01 | 90 | |
| 20260902221003 | 64 | 239 | 12.0 | 16.0 | 0.00 | 0.01 | 0.01 | 90 | |
| 20260902220924 | 64 | 239 | 12.0 | 16.0 | 0.00 | 0.01 | 0.01 | 90 | |
| 20260902220803 | 64 | 239 | 12.0 | 16.0 | 0.00 | 0.01 | 0.01 | 91 | |
| 20260902220703 | 64 | 239 | 12.0 | 16.0 | 0.00 | 0.01 | 0.01 | 91 | |
| 20260902220603 | 64 | 239 | 12.0 | 16.0 | 0.00 | 0.01 | 0.01 | 91 | |
| 20260902220503 | 64 | 238 | 12.0 | 16.0 | 0.00 | 0.01 | 0.01 | 91 | |
| 20260902220403 | 64 | 238 | 12.0 | 16.0 | 0.00 | 0.01 | 0.01 | 91 | |
| 20260902220324 | 64 | 238 | 12.0 | 16.0 | 0.00 | 0.01 | 0.01 | 91 | |
| 20260902220203 | 64 | 237 | 12.0 | 16.0 | 0.00 | 0.01 | 0.01 | 91 | |
| 20260902220003 | 64 | 237 | 12.0 | 16.0 | 0.00 | 0.01 | 0.01 | 91 | |
| 20260902215903 | 64 | 237 | 12.0 | 16.0 | 0.00 | 0.01 | 0.01 | 91 | |
| 20260902215804 | 64 | 236 | 12.0 | 16.0 | 0.00 | 0.01 | 0.01 | 91 | |
| 20260902215703 | 64 | 237 | 12.0 | 20.0 | 0.00 | 0.01 | 0.01 | 91 | |
| 20260902215603 | 64 | 236 | 12.0 | 20.0 | 0.00 | 0.01 | 0.01 | 91 | |
| 20260902215503 | 64 | 236 | 12.0 | 20.0 | 0.00 | 0.01 | 0.01 | 91 | |
| 20260902215403 | 64 | 235 | 12.0 | 20.0 | 0.00 | 0.01 | 0.01 | 91 | |
| 20260902215324 | 65 | 235 | 12.0 | 20.0 | 0.00 | 0.01 | 0.01 | 91 | |
| 20260902215203 | 65 | 235 | 13.0 | 20.0 | 0.00 | 0.01 | 0.01 | 91 | |
| 20260902215124 | 65 | 235 | 13.0 | 20.0 | 0.00 | 0.01 | 0.01 | 91 | |
| 20260902215003 | 65 | 234 | 13.0 | 20.0 | 0.00 | 0.01 | 0.01 | 91 | |
| 20260902214924 | 65 | 235 | 13.0 | 20.0 | 0.00 | 0.01 | 0.01 | 91 | |
| 20260902214803 | 65 | 235 | 13.0 | 20.0 | 0.00 | 0.01 | 0.01 | 91 | |
| 20260902214703 | 65 | 234 | 13.0 | 19.0 | 0.00 | 0.01 | 0.01 | 91 | |
| 20260902214624 | 65 | 235 | 13.0 | 19.0 | 0.00 | 0.01 | 0.01 | 91 | |
| 20260902214504 | 65 | 234 | 13.0 | 19.0 | 0.00 | 0.01 | 0.01 | 91 | |
| 20260902214424 | 65 | 233 | 13.0 | 19.0 | 0.00 | 0.01 | 0.01 | 91 | |
| 20260902214325 | 65 | 232 | 13.0 | 19.0 | 0.00 | 0.01 | 0.01 | 91 | |
| 20260902214203 | 65 | 231 | 13.0 | 19.0 | 0.00 | 0.01 | 0.01 | 92 | |
| 20260902214103 | 64 | 230 | 13.0 | 19.0 | 0.00 | 0.01 | 0.01 | 92 | |
| 20260902214003 | 65 | 228 | 13.0 | 19.0 | 0.00 | 0.01 | 0.01 | 92 | |
| 20260902213903 | 65 | 227 | 13.0 | 19.0 | 0.00 | 0.01 | 0.01 | 92 | |
| 20260902213803 | 65 | 225 | 13.0 | 18.0 | 0.00 | 0.01 | 0.01 | 92 | |
| 20260902213703 | 65 | 225 | 13.0 | 18.0 | 0.00 | 0.01 | 0.01 | 92 | |
| 20260902213603 | 64 | 224 | 13.0 | 18.0 | 0.00 | 0.01 | 0.01 | 92 | |
| 20260902213503 | 64 | 223 | 12.0 | 18.0 | 0.00 | 0.01 | 0.01 | 92 | |
| 20260902213403 | 64 | 223 | 12.0 | 18.0 | 0.00 | 0.01 | 0.01 | 93 | |
| 20260902213303 | 64 | 224 | 12.0 | 18.0 | 0.00 | 0.01 | 0.01 | 93 | |
| 20260902213204 | 64 | 224 | 11.0 | 18.0 | 0.00 | 0.01 | 0.01 | 93 | |
| 20260902213124 | 64 | 225 | 11.0 | 18.0 | 0.00 | 0.01 | 0.01 | 93 | |
| 20260902213003 | 64 | 227 | 11.0 | 16.0 | 0.00 | 0.01 | 0.01 | 93 | |
| 20260902212903 | 64 | 228 | 11.0 | 15.0 | 0.00 | 0.01 | 0.01 | 93 | |
| 20260902212803 | 64 | 228 | 11.0 | 15.0 | 0.00 | 0.01 | 0.01 | 93 | |
| 20260902212703 | 64 | 228 | 11.0 | 16.0 | 0.00 | 0.01 | 0.01 | 93 | |
| 20260902212603 | 64 | 228 | 11.0 | 16.0 | 0.00 | 0.01 | 0.01 | 93 | |
| 20260902212503 | 64 | 228 | 12.0 | 16.0 | 0.00 | 0.01 | 0.01 | 93 | |
| 20260902212403 | 64 | 227 | 12.0 | 16.0 | 0.00 | 0.01 | 0.01 | 93 | |
| 20260902212324 | 64 | 226 | 12.0 | 16.0 | 0.00 | 0.01 | 0.01 | 93 | |
| 20260902212203 | 64 | 225 | 12.0 | 16.0 | 0.00 | 0.01 | 0.01 | 94 | |
| 20260902212103 | 64 | 225 | 11.0 | 16.0 | 0.00 | 0.01 | 0.01 | 94 | |
| 20260902212003 | 64 | 224 | 11.0 | 16.0 | 0.00 | 0.01 | 0.01 | 94 | |
| 20260902211903 | 64 | 223 | 11.0 | 16.0 | 0.00 | 0.01 | 0.01 | 94 | |
| 20260902211824 | 64 | 223 | 11.0 | 16.0 | 0.00 | 0.01 | 0.01 | 94 | |
| 20260902211703 | 64 | 223 | 11.0 | 16.0 | 0.00 | 0.01 | 0.01 | 94 | |
| 20260902211603 | 64 | 222 | 10.0 | 16.0 | 0.00 | 0.01 | 0.01 | 94 | |
| 20260902211503 | 64 | 223 | 10.0 | 16.0 | 0.00 | 0.01 | 0.01 | 94 | |
| 20260902211403 | 64 | 223 | 10.0 | 16.0 | 0.00 | 0.01 | 0.01 | 94 | |
| 20260902211324 | 64 | 223 | 10.0 | 16.0 | 0.00 | 0.01 | 0.01 | 94 | |
| 20260902211203 | 64 | 222 | 10.0 | 16.0 | 0.00 | 0.01 | 0.01 | 94 | |
| 20260902211103 | 64 | 222 | 10.0 | 16.0 | 0.00 | 0.01 | 0.01 | 94 | |
| 20260902211003 | 64 | 221 | 10.0 | 16.0 | 0.00 | 0.01 | 0.01 | 94 | |
| 20260902210903 | 64 | 221 | 10.0 | 16.0 | 0.00 | 0.01 | 0.01 | 94 | |
| 20260902210803 | 64 | 220 | 10.0 | 13.0 | 0.00 | 0.01 | 0.01 | 94 | |
| 20260902210724 | 64 | 220 | 10.0 | 13.0 | 0.00 | 0.01 | 0.01 | 94 | |
| 20260902210624 | 64 | 220 | 10.0 | 13.0 | 0.00 | 0.01 | 0.01 | 94 | |
| 20260902210503 | 64 | 219 | 9.0 | 13.0 | 0.00 | 0.01 | 0.01 | 94 | |
| 20260902210424 | 64 | 218 | 9.0 | 13.0 | 0.00 | 0.01 | 0.01 | 94 | |
| 20260902210303 | 64 | 219 | 9.0 | 13.0 | 0.00 | 0.01 | 0.01 | 94 | |
| 20260902210204 | 64 | 219 | 9.0 | 13.0 | 0.00 | 0.01 | 0.01 | 94 | |
| 20260902210103 | 65 | 218 | 9.0 | 13.0 | 0.00 | 0.01 | 0.01 | 94 | |
| 20260902210004 | 65 | 219 | 9.0 | 13.0 | 0.00 | 0.01 | 0.01 | 94 | |
| 20260902205924 | 64 | 218 | 9.0 | 13.0 | 0.00 | 0.01 | 0.01 | 94 | |
| 20260902205803 | 65 | 217 | 9.0 | 13.0 | 0.00 | 0.01 | 0.01 | 95 | |
| 20260902205724 | 64 | 217 | 9.0 | 13.0 | 0.00 | 0.01 | 0.01 | 95 | |
| 20260902205603 | 64 | 216 | 10.0 | 13.0 | 0.00 | 0.01 | 0.01 | 95 | |
| 20260902205503 | 65 | 215 | 10.0 | 13.0 | 0.00 | 0.01 | 0.01 | 95 | |
| 20260902205403 | 65 | 215 | 10.0 | 15.0 | 0.00 | 0.01 | 0.01 | 95 | |
| 20260902205306 | 65 | 215 | 10.0 | 15.0 | 0.00 | 0.01 | 0.01 | 95 | |
| 20260902205203 | 64 | 214 | 10.0 | 15.0 | 0.00 | 0.01 | 0.01 | 95 | |
| 20260902205124 | 65 | 215 | 10.0 | 15.0 | 0.00 | 0.01 | 0.01 | 95 | |
| 20260902205003 | 65 | 214 | 10.0 | 15.0 | 0.00 | 0.01 | 0.01 | 95 | |
| 20260902204903 | 64 | 215 | 10.0 | 15.0 | 0.00 | 0.01 | 0.01 | 95 | |
| 20260902204803 | 64 | 215 | 10.0 | 15.0 | 0.00 | 0.01 | 0.01 | 95 | |
| 20260902204724 | 64 | 215 | 10.0 | 15.0 | 0.00 | 0.01 | 0.01 | 95 | |
| 20260902204604 | 64 | 215 | 10.0 | 15.0 | 0.00 | 0.01 | 0.01 | 95 | |
| 20260902204503 | 64 | 216 | 10.0 | 15.0 | 0.00 | 0.01 | 0.01 | 95 | |
| 20260902204403 | 64 | 216 | 10.0 | 13.0 | 0.00 | 0.01 | 0.01 | 95 | |
| 20260902204305 | 64 | 216 | 10.0 | 13.0 | 0.00 | 0.01 | 0.01 | 95 | |
| 20260902204203 | 64 | 216 | 10.0 | 13.0 | 0.00 | 0.01 | 0.01 | 95 | |
| 20260902204103 | 64 | 216 | 10.0 | 13.0 | 0.00 | 0.01 | 0.01 | 95 | |
| 20260902204024 | 64 | 216 | 10.0 | 13.0 | 0.00 | 0.01 | 0.01 | 95 | |
| 20260902203903 | 64 | 216 | 10.0 | 13.0 | 0.00 | 0.01 | 0.01 | 95 | |
| 20260902203803 | 64 | 215 | 10.0 | 13.0 | 0.00 | 0.01 | 0.01 | 95 | |
| 20260902203703 | 64 | 216 | 10.0 | 13.0 | 0.00 | 0.01 | 0.01 | 95 | |
| 20260902203603 | 64 | 216 | 10.0 | 13.0 | 0.00 | 0.01 | 0.01 | 95 | |
| 20260902203503 | 64 | 216 | 10.0 | 13.0 | 0.00 | 0.01 | 0.01 | 95 | |
| 20260902203403 | 64 | 216 | 10.0 | 13.0 | 0.00 | 0.01 | 0.01 | 95 | |
| 20260902203303 | 64 | 217 | 10.0 | 15.0 | 0.00 | 0.01 | 0.01 | 95 | |
| 20260902203203 | 64 | 217 | 10.0 | 15.0 | 0.00 | 0.01 | 0.01 | 95 | |
| 20260902203103 | 64 | 217 | 10.0 | 15.0 | 0.00 | 0.01 | 0.01 | 95 | |
| 20260902203003 | 64 | 217 | 10.0 | 15.0 | 0.00 | 0.01 | 0.01 | 95 | |
| 20260902202903 | 64 | 217 | 10.0 | 15.0 | 0.00 | 0.01 | 0.01 | 95 | |
| 20260902202803 | 64 | 216 | 10.0 | 15.0 | 0.00 | 0.01 | 0.01 | 95 | |
| 20260902202703 | 64 | 216 | 10.0 | 15.0 | 0.00 | 0.01 | 0.01 | 95 | |
| 20260902202603 | 64 | 215 | 10.0 | 15.0 | 0.00 | 0.01 | 0.01 | 95 | |
| 20260902202503 | 64 | 215 | 10.0 | 15.0 | 0.00 | 0.01 | 0.01 | 95 | |
| 20260902202403 | 64 | 215 | 10.0 | 15.0 | 0.00 | 0.01 | 0.01 | 95 | |
| 20260902202324 | 64 | 215 | 10.0 | 14.0 | 0.00 | 0.01 | 0.01 | 95 | |
| 20260902202203 | 64 | 215 | 10.0 | 14.0 | 0.00 | 0.01 | 0.01 | 95 | |
| 20260902202103 | 64 | 214 | 10.0 | 13.0 | 0.00 | 0.01 | 0.01 | 95 | |
| 20260902202003 | 64 | 214 | 10.0 | 13.0 | 0.00 | 0.01 | 0.01 | 95 | |
| 20260902201903 | 64 | 215 | 10.0 | 15.0 | 0.00 | 0.01 | 0.01 | 95 | |
| 20260902201802 | 64 | 215 | 10.0 | 15.0 | 0.00 | 0.01 | 0.01 | 95 | |
| 20260902201702 | 64 | 214 | 10.0 | 15.0 | 0.00 | 0.01 | 0.01 | 95 | |
| 20260902201602 | 64 | 214 | 11.0 | 15.0 | 0.00 | 0.01 | 0.01 | 95 | |
| 20260902201523 | 64 | 214 | 11.0 | 15.0 | 0.00 | 0.01 | 0.01 | 95 | |
| 20260902201402 | 64 | 215 | 10.0 | 15.0 | 0.00 | 0.01 | 0.01 | 95 | |
| 20260902201323 | 64 | 215 | 10.0 | 15.0 | 0.00 | 0.01 | 0.01 | 95 | |
| 20260902201202 | 64 | 214 | 10.0 | 15.0 | 0.00 | 0.01 | 0.01 | 95 | |
| 20260902201102 | 64 | 215 | 10.0 | 15.0 | 0.00 | 0.01 | 0.01 | 95 | |
| 20260902201023 | 64 | 215 | 10.0 | 15.0 | 0.00 | 0.01 | 0.01 | 95 | |
| 20260902200923 | 64 | 215 | 10.0 | 14.0 | 0.00 | 0.01 | 0.01 | 95 | |
| 20260902200802 | 64 | 215 | 10.0 | 14.0 | 0.00 | 0.01 | 0.01 | 95 | |
| 20260902200702 | 64 | 215 | 10.0 | 14.0 | 0.00 | 0.01 | 0.01 | 95 | |
| 20260902200623 | 64 | 214 | 10.0 | 15.0 | 0.00 | 0.01 | 0.01 | 95 | |
| 20260902200502 | 64 | 214 | 10.0 | 15.0 | 0.00 | 0.01 | 0.01 | 95 | |
| 20260902200402 | 64 | 214 | 10.0 | 15.0 | 0.00 | 0.01 | 0.01 | 95 | |
| 20260902200302 | 64 | 214 | 10.0 | 15.0 | 0.00 | 0.01 | 0.01 | 95 | |
| 20260902200223 | 64 | 213 | 10.0 | 15.0 | 0.00 | 0.01 | 0.01 | 95 | |
| 20260902200002 | 64 | 214 | 10.0 | 15.0 | 0.00 | 0.01 | 0.01 | 95 | |
| 20260902195902 | 64 | 214 | 10.0 | 15.0 | 0.00 | 0.01 | 0.01 | 95 | |
| 20260902195802 | 64 | 214 | 10.0 | 15.0 | 0.00 | 0.01 | 0.01 | 95 | |
| 20260902195702 | 64 | 214 | 10.0 | 15.0 | 0.00 | 0.01 | 0.01 | 95 | |
| 20260902195602 | 64 | 213 | 10.0 | 16.0 | 0.00 | 0.01 | 0.01 | 95 | |
| 20260902195502 | 64 | 212 | 10.0 | 16.0 | 0.00 | 0.01 | 0.01 | 95 | |
| 20260902195403 | 64 | 211 | 10.0 | 16.0 | 0.00 | 0.01 | 0.01 | 95 | |
| 20260902195306 | 64 | 211 | 11.0 | 16.0 | 0.00 | 0.01 | 0.01 | 95 | |
| 20260902195202 | 64 | 210 | 11.0 | 16.0 | 0.00 | 0.01 | 0.01 | 95 | |
| 20260902195102 | 64 | 208 | 11.0 | 16.0 | 0.00 | 0.01 | 0.01 | 95 | |
| 20260902195023 | 64 | 207 | 11.0 | 16.0 | 0.00 | 0.01 | 0.01 | 95 | |
| 20260902194902 | 64 | 205 | 11.0 | 16.0 | 0.00 | 0.01 | 0.01 | 95 | |
| 20260902194802 | 64 | 205 | 11.0 | 16.0 | 0.00 | 0.01 | 0.01 | 95 | |
| 20260902194702 | 64 | 204 | 11.0 | 16.0 | 0.00 | 0.01 | 0.01 | 95 | |
| 20260902194602 | 64 | 204 | 10.0 | 15.0 | 0.00 | 0.01 | 0.01 | 95 | |
| 20260902194502 | 64 | 205 | 10.0 | 15.0 | 0.00 | 0.01 | 0.01 | 95 | |
| 20260902194403 | 64 | 204 | 10.0 | 13.0 | 0.00 | 0.01 | 0.01 | 95 | |
| 20260902194302 | 64 | 203 | 10.0 | 13.0 | 0.00 | 0.01 | 0.01 | 95 | |
| 20260902194223 | 64 | 203 | 10.0 | 13.0 | 0.00 | 0.01 | 0.01 | 95 | |
| 20260902194123 | 64 | 203 | 10.0 | 13.0 | 0.00 | 0.01 | 0.01 | 95 | |
| 20260902194002 | 64 | 203 | 10.0 | 12.0 | 0.00 | 0.01 | 0.01 | 95 | |
| 20260902193902 | 64 | 202 | 9.0 | 12.0 | 0.00 | 0.01 | 0.01 | 95 | |
| 20260902193802 | 64 | 201 | 9.0 | 12.0 | 0.00 | 0.01 | 0.01 | 95 | |
| 20260902193702 | 64 | 199 | 9.0 | 12.0 | 0.00 | 0.01 | 0.01 | 95 | |
| 20260902193602 | 64 | 199 | 9.0 | 12.0 | 0.00 | 0.01 | 0.01 | 95 | |
| 20260902193502 | 64 | 199 | 10.0 | 13.0 | 0.00 | 0.01 | 0.01 | 95 | |
| 20260902193424 | 64 | 199 | 10.0 | 13.0 | 0.00 | 0.01 | 0.01 | 95 | |
| 20260902193303 | 64 | 200 | 10.0 | 13.0 | 0.00 | 0.01 | 0.01 | 95 | |
| 20260902193223 | 64 | 201 | 10.0 | 13.0 | 0.00 | 0.01 | 0.01 | 95 | |
| 20260902193102 | 64 | 203 | 10.0 | 13.0 | 0.00 | 0.01 | 0.01 | 95 | |
| 20260902193002 | 64 | 205 | 10.0 | 13.0 | 0.00 | 0.01 | 0.01 | 95 | |
| 20260902192902 | 64 | 207 | 10.0 | 13.0 | 0.00 | 0.01 | 0.01 | 95 | |
| 20260902192802 | 64 | 208 | 10.0 | 13.0 | 0.00 | 0.01 | 0.01 | 95 | |
| 20260902192702 | 64 | 209 | 10.0 | 13.0 | 0.00 | 0.01 | 0.01 | 95 | |
| 20260902192602 | 64 | 208 | 10.0 | 13.0 | 0.00 | 0.01 | 0.01 | 95 | |
| 20260902192502 | 64 | 208 | 10.0 | 13.0 | 0.00 | 0.01 | 0.01 | 95 | |
| 20260902192403 | 64 | 208 | 9.0 | 13.0 | 0.00 | 0.01 | 0.01 | 95 | |
| 20260902192302 | 64 | 206 | 9.0 | 13.0 | 0.00 | 0.01 | 0.01 | 95 | |
| 20260902192223 | 64 | 205 | 9.0 | 13.0 | 0.00 | 0.01 | 0.01 | 95 | |
| 20260902192102 | 64 | 203 | 10.0 | 13.0 | 0.00 | 0.01 | 0.01 | 95 | |
| 20260902192002 | 64 | 202 | 10.0 | 13.0 | 0.00 | 0.01 | 0.01 | 95 | |
| 20260902191923 | 64 | 201 | 10.0 | 13.0 | 0.00 | 0.01 | 0.01 | 95 | |
| 20260902191802 | 64 | 200 | 10.0 | 13.0 | 0.00 | 0.01 | 0.01 | 95 | |
| 20260902191702 | 64 | 200 | 9.0 | 13.0 | 0.00 | 0.01 | 0.01 | 95 | |
| 20260902191602 | 64 | 201 | 9.0 | 13.0 | 0.00 | 0.01 | 0.01 | 95 | |
| 20260902191502 | 64 | 202 | 10.0 | 13.0 | 0.00 | 0.01 | 0.01 | 95 | |
| 20260902191423 | 64 | 202 | 10.0 | 14.0 | 0.00 | 0.01 | 0.01 | 95 | |
| 20260902191302 | 64 | 203 | 10.0 | 14.0 | 0.00 | 0.01 | 0.01 | 95 | |
| 20260902191202 | 64 | 203 | 10.0 | 14.0 | 0.00 | 0.01 | 0.01 | 95 | |
| 20260902191102 | 64 | 203 | 10.0 | 15.0 | 0.00 | 0.01 | 0.01 | 95 | |
| 20260902191002 | 64 | 202 | 10.0 | 15.0 | 0.00 | 0.01 | 0.01 | 95 | |
| 20260902190902 | 64 | 201 | 10.0 | 15.0 | 0.00 | 0.01 | 0.01 | 95 | |
| 20260902190802 | 64 | 200 | 10.0 | 15.0 | 0.00 | 0.01 | 0.01 | 95 | |
| 20260902190702 | 64 | 198 | 10.0 | 15.0 | 0.00 | 0.01 | 0.01 | 95 | |
| 20260902190602 | 64 | 197 | 10.0 | 15.0 | 0.00 | 0.01 | 0.01 | 95 | |
| 20260902190523 | 64 | 196 | 10.0 | 15.0 | 0.00 | 0.01 | 0.01 | 95 | |
| 20260902190403 | 64 | 193 | 10.0 | 15.0 | 0.00 | 0.01 | 0.01 | 95 | |
| 20260902190323 | 64 | 193 | 10.0 | 15.0 | 0.00 | 0.01 | 0.01 | 95 | |
| 20260902190202 | 64 | 192 | 9.0 | 15.0 | 0.00 | 0.01 | 0.01 | 95 | |
| 20260902190002 | 64 | 190 | 9.0 | 14.0 | 0.00 | 0.01 | 0.01 | 95 | |
| 20260902185902 | 64 | 190 | 9.0 | 14.0 | 0.00 | 0.01 | 0.01 | 95 | |
| 20260902185802 | 64 | 191 | 10.0 | 14.0 | 0.00 | 0.01 | 0.01 | 95 | |
| 20260902185702 | 64 | 192 | 9.0 | 14.0 | 0.00 | 0.01 | 0.01 | 95 | |
| 20260902185602 | 64 | 192 | 9.0 | 14.0 | 0.00 | 0.01 | 0.01 | 95 | |
| 20260902185523 | 64 | 192 | 9.0 | 14.0 | 0.00 | 0.01 | 0.01 | 95 | |
| 20260902185423 | 64 | 192 | 9.0 | 14.0 | 0.00 | 0.01 | 0.01 | 95 | |
| 20260902185306 | 63 | 191 | 9.0 | 14.0 | 0.00 | 0.01 | 0.01 | 95 | |
| 20260902185203 | 63 | 192 | 9.0 | 14.0 | 0.00 | 0.01 | 0.01 | 95 | |
| 20260902185102 | 64 | 192 | 10.0 | 15.0 | 0.00 | 0.01 | 0.01 | 95 | |
| 20260902185002 | 63 | 191 | 10.0 | 15.0 | 0.00 | 0.01 | 0.01 | 95 | |
| 20260902184902 | 63 | 191 | 10.0 | 15.0 | 0.00 | 0.01 | 0.01 | 95 | |
| 20260902184802 | 63 | 190 | 10.0 | 15.0 | 0.01 | 0.01 | 0.01 | 95 | |
| 20260902184702 | 63 | 190 | 10.0 | 15.0 | 0.01 | 0.01 | 0.01 | 95 | |
| 20260902184602 | 63 | 190 | 10.0 | 15.0 | 0.01 | 0.01 | 0.01 | 95 | |
| 20260902184502 | 63 | 190 | 11.0 | 15.0 | 0.01 | 0.01 | 0.01 | 95 | |
| 20260902184402 | 63 | 191 | 11.0 | 15.0 | 0.01 | 0.01 | 0.01 | 95 | |
| 20260902184302 | 63 | 192 | 11.0 | 15.0 | 0.01 | 0.01 | 0.01 | 95 | |
| 20260902184202 | 63 | 192 | 11.0 | 15.0 | 0.01 | 0.01 | 0.01 | 95 | |
| 20260902184102 | 63 | 193 | 11.0 | 15.0 | 0.01 | 0.01 | 0.01 | 95 | |
| 20260902184023 | 63 | 193 | 11.0 | 15.0 | 0.01 | 0.01 | 0.01 | 95 | |
| 20260902183902 | 63 | 194 | 10.0 | 15.0 | 0.01 | 0.01 | 0.01 | 95 | |
| 20260902183802 | 63 | 194 | 10.0 | 14.0 | 0.01 | 0.01 | 0.01 | 95 | |
| 20260902183702 | 63 | 194 | 10.0 | 14.0 | 0.01 | 0.01 | 0.01 | 95 | |
| 20260902183602 | 63 | 194 | 10.0 | 14.0 | 0.01 | 0.01 | 0.01 | 95 | |
| 20260902183502 | 63 | 195 | 10.0 | 18.0 | 0.01 | 0.01 | 0.01 | 95 | |
| 20260902183402 | 63 | 195 | 11.0 | 18.0 | 0.01 | 0.01 | 0.01 | 95 | |
| 20260902183302 | 63 | 196 | 11.0 | 18.0 | 0.01 | 0.01 | 0.01 | 95 | |
| 20260902183202 | 63 | 195 | 10.0 | 18.0 | 0.01 | 0.01 | 0.01 | 95 | |
| 20260902183123 | 63 | 195 | 10.0 | 18.0 | 0.01 | 0.01 | 0.01 | 95 | |
| 20260902183002 | 63 | 195 | 10.0 | 18.0 | 0.01 | 0.01 | 0.01 | 95 | |
| 20260902182902 | 63 | 194 | 10.0 | 18.0 | 0.01 | 0.01 | 0.01 | 95 | |
| 20260902182802 | 63 | 194 | 10.0 | 18.0 | 0.01 | 0.01 | 0.01 | 95 | |
| 20260902182702 | 63 | 193 | 10.0 | 18.0 | 0.01 | 0.01 | 0.01 | 95 | |
| 20260902182603 | 63 | 191 | 10.0 | 18.0 | 0.01 | 0.01 | 0.01 | 95 | |
| 20260902182502 | 63 | 189 | 9.0 | 16.0 | 0.01 | 0.01 | 0.01 | 95 | |
| 20260902182424 | 63 | 189 | 9.0 | 15.0 | 0.01 | 0.01 | 0.01 | 95 | |
| 20260902182306 | 63 | 186 | 9.0 | 14.0 | 0.01 | 0.01 | 0.01 | 95 | |
| 20260902182202 | 63 | 185 | 9.0 | 15.0 | 0.01 | 0.01 | 0.01 | 95 | |
| 20260902182102 | 63 | 185 | 9.0 | 15.0 | 0.01 | 0.01 | 0.01 | 95 | |
| 20260902182002 | 63 | 184 | 9.0 | 15.0 | 0.01 | 0.01 | 0.01 | 95 | |
| 20260902181902 | 63 | 184 | 10.0 | 15.0 | 0.01 | 0.01 | 0.01 | 95 | |
| 20260902181823 | 63 | 184 | 10.0 | 15.0 | 0.01 | 0.01 | 0.01 | 95 | |
| 20260902181702 | 63 | 184 | 9.0 | 15.0 | 0.01 | 0.01 | 0.01 | 95 | |
| 20260902181602 | 63 | 185 | 9.0 | 15.0 | 0.01 | 0.01 | 0.01 | 95 | |
| 20260902181502 | 63 | 185 | 9.0 | 15.0 | 0.01 | 0.01 | 0.01 | 95 | |
| 20260902181402 | 63 | 184 | 9.0 | 15.0 | 0.01 | 0.01 | 0.01 | 95 | |
| 20260902181302 | 63 | 184 | 9.0 | 15.0 | 0.01 | 0.01 | 0.01 | 95 | |
| 20260902181202 | 63 | 185 | 9.0 | 14.0 | 0.01 | 0.01 | 0.01 | 95 | |
| 20260902181102 | 63 | 185 | 9.0 | 14.0 | 0.01 | 0.01 | 0.01 | 95 | |
| 20260902181002 | 63 | 186 | 9.0 | 14.0 | 0.01 | 0.01 | 0.01 | 95 | |
| 20260902180902 | 63 | 186 | 9.0 | 14.0 | 0.01 | 0.01 | 0.01 | 95 | |
| 20260902180802 | 63 | 186 | 9.0 | 14.0 | 0.01 | 0.01 | 0.01 | 95 | |
| 20260902180724 | 63 | 187 | 9.0 | 14.0 | 0.01 | 0.01 | 0.01 | 95 | |
| 20260902180623 | 63 | 187 | 9.0 | 14.0 | 0.01 | 0.01 | 0.01 | 95 | |
| 20260902180502 | 63 | 188 | 9.0 | 13.0 | 0.01 | 0.01 | 0.01 | 95 | |
| 20260902180402 | 63 | 188 | 8.0 | 13.0 | 0.01 | 0.01 | 0.01 | 94 | |
| 20260902180302 | 63 | 189 | 9.0 | 13.0 | 0.01 | 0.01 | 0.01 | 94 | |
| 20260902180202 | 63 | 190 | 9.0 | 13.0 | 0.01 | 0.01 | 0.01 | 94 | |
| 20260902180023 | 63 | 191 | 9.0 | 13.0 | 0.01 | 0.01 | 0.01 | 94 | |
| 20260902175902 | 63 | 192 | 9.0 | 13.0 | 0.01 | 0.01 | 0.01 | 94 | |
| 20260902175802 | 63 | 193 | 9.0 | 13.0 | 0.01 | 0.01 | 0.01 | 94 | |
| 20260902175702 | 63 | 194 | 10.0 | 13.0 | 0.01 | 0.01 | 0.01 | 94 | |
| 20260902175602 | 63 | 194 | 10.0 | 14.0 | 0.01 | 0.01 | 0.01 | 94 | |
| 20260902175502 | 63 | 195 | 10.0 | 14.0 | 0.01 | 0.01 | 0.01 | 94 | |
| 20260902175402 | 63 | 195 | 10.0 | 14.0 | 0.01 | 0.01 | 0.01 | 94 | |
| 20260902175323 | 63 | 195 | 10.0 | 14.0 | 0.01 | 0.01 | 0.01 | 94 | |
| 20260902175202 | 63 | 195 | 10.0 | 14.0 | 0.01 | 0.01 | 0.01 | 94 | |
| 20260902175102 | 63 | 195 | 10.0 | 14.0 | 0.01 | 0.01 | 0.01 | 94 | |
| 20260902175002 | 63 | 195 | 11.0 | 14.0 | 0.01 | 0.01 | 0.01 | 94 | |
| 20260902174902 | 63 | 195 | 11.0 | 14.0 | 0.01 | 0.01 | 0.01 | 94 | |
| 20260902174802 | 63 | 195 | 11.0 | 15.0 | 0.00 | 0.00 | 0.00 | 94 | |
| 20260902174702 | 63 | 195 | 11.0 | 19.0 | 0.00 | 0.00 | 0.00 | 94 | |
| 20260902174602 | 63 | 195 | 11.0 | 19.0 | 0.00 | 0.00 | 0.00 | 94 | |
| 20260902174502 | 63 | 194 | 11.0 | 19.0 | 0.00 | 0.00 | 0.00 | 94 | |
| 20260902174402 | 63 | 194 | 11.0 | 19.0 | 0.00 | 0.00 | 0.00 | 94 | |
| 20260902174302 | 63 | 195 | 12.0 | 19.0 | 0.00 | 0.00 | 0.00 | 94 | |
| 20260902174202 | 63 | 195 | 12.0 | 19.0 | 0.00 | 0.00 | 0.00 | 94 | |
| 20260902174102 | 63 | 195 | 12.0 | 19.0 | 0.00 | 0.00 | 0.00 | 94 | |
| 20260902174002 | 63 | 195 | 11.0 | 19.0 | 0.00 | 0.00 | 0.00 | 94 | |
| 20260902173902 | 63 | 195 | 11.0 | 19.0 | 0.00 | 0.00 | 0.00 | 94 | |
| 20260902173802 | 63 | 195 | 11.0 | 19.0 | 0.00 | 0.00 | 0.00 | 94 | |
| 20260902173703 | 63 | 196 | 11.0 | 16.0 | 0.00 | 0.00 | 0.00 | 94 | |
| 20260902173602 | 63 | 196 | 12.0 | 16.0 | 0.00 | 0.00 | 0.00 | 94 | |
| 20260902173502 | 63 | 196 | 12.0 | 16.0 | 0.00 | 0.00 | 0.00 | 93 | |
| 20260902173402 | 63 | 196 | 12.0 | 16.0 | 0.00 | 0.00 | 0.00 | 94 | |
| 20260902173323 | 63 | 196 | 12.0 | 19.0 | 0.00 | 0.00 | 0.00 | 94 | |
| 20260902173202 | 63 | 196 | 13.0 | 19.0 | 0.00 | 0.00 | 0.00 | 93 | |
| 20260902173102 | 63 | 196 | 13.0 | 19.0 | 0.00 | 0.00 | 0.00 | 93 | |
| 20260902173002 | 63 | 196 | 13.0 | 19.0 | 0.00 | 0.00 | 0.00 | 93 | |
| 20260902172902 | 63 | 196 | 13.0 | 19.0 | 0.00 | 0.00 | 0.00 | 93 | |
| 20260902172802 | 63 | 196 | 13.0 | 19.0 | 0.00 | 0.00 | 0.00 | 93 | |
| 20260902172702 | 63 | 195 | 13.0 | 19.0 | 0.00 | 0.00 | 0.00 | 93 | |
| 20260902172624 | 63 | 196 | 13.0 | 19.0 | 0.00 | 0.00 | 0.00 | 93 | |
| 20260902172502 | 63 | 195 | 13.0 | 19.0 | 0.00 | 0.00 | 0.00 | 93 | |
| 20260902172402 | 63 | 196 | 12.0 | 19.0 | 0.00 | 0.00 | 0.00 | 93 | |
| 20260902172307 | 63 | 195 | 12.0 | 19.0 | 0.00 | 0.00 | 0.00 | 93 | |
| 20260902172202 | 63 | 195 | 12.0 | 19.0 | 0.00 | 0.00 | 0.00 | 93 | |
| 20260902172102 | 63 | 195 | 12.0 | 19.0 | 0.00 | 0.00 | 0.00 | 93 | |
| 20260902172002 | 63 | 196 | 12.0 | 19.0 | 0.00 | 0.00 | 0.00 | 93 | |
| 20260902171902 | 63 | 195 | 12.0 | 19.0 | 0.00 | 0.00 | 0.00 | 93 | |
| 20260902171802 | 63 | 195 | 12.0 | 19.0 | 0.00 | 0.00 | 0.00 | 93 | |
| 20260902171723 | 63 | 196 | 12.0 | 16.0 | 0.00 | 0.00 | 0.00 | 93 | |
| 20260902171602 | 63 | 196 | 12.0 | 19.0 | 0.00 | 0.00 | 0.00 | 93 | |
| 20260902171502 | 63 | 196 | 13.0 | 19.0 | 0.00 | 0.00 | 0.00 | 93 | |
| 20260902171402 | 63 | 197 | 13.0 | 19.0 | 0.00 | 0.00 | 0.00 | 93 | |
| 20260902171302 | 63 | 197 | 13.0 | 19.0 | 0.00 | 0.00 | 0.00 | 93 | |
| 20260902171202 | 63 | 198 | 13.0 | 19.0 | 0.00 | 0.00 | 0.00 | 93 | |
| 20260902171103 | 63 | 198 | 13.0 | 19.0 | 0.00 | 0.00 | 0.00 | 93 | |
| 20260902171002 | 63 | 197 | 13.0 | 19.0 | 0.00 | 0.00 | 0.00 | 93 | |
| 20260902170902 | 63 | 197 | 13.0 | 19.0 | 0.00 | 0.00 | 0.00 | 93 | |
| 20260902170824 | 63 | 197 | 13.0 | 19.0 | 0.00 | 0.00 | 0.00 | 93 | |
| 20260902170702 | 63 | 196 | 12.0 | 19.0 | 0.00 | 0.00 | 0.00 | 93 | |
| 20260902170623 | 63 | 195 | 12.0 | 19.0 | 0.00 | 0.00 | 0.00 | 93 | |
| 20260902170523 | 63 | 194 | 12.0 | 19.0 | 0.00 | 0.00 | 0.00 | 93 | |
| 20260902170402 | 63 | 194 | 11.0 | 19.0 | 0.00 | 0.00 | 0.00 | 93 | |
| 20260902170302 | 63 | 193 | 11.0 | 19.0 | 0.00 | 0.00 | 0.00 | 93 | |
| 20260902170202 | 63 | 192 | 11.0 | 19.0 | 0.00 | 0.00 | 0.00 | 92 | |
| 20260902170103 | 63 | 192 | 11.0 | 19.0 | 0.00 | 0.00 | 0.00 | 92 | |
| 20260902170023 | 63 | 192 | 11.0 | 19.0 | 0.00 | 0.00 | 0.00 | 92 | |
| 20260902165902 | 63 | 191 | 10.0 | 16.0 | 0.00 | 0.00 | 0.00 | 92 | |
| 20260902165823 | 63 | 191 | 10.0 | 16.0 | 0.00 | 0.00 | 0.00 | 92 | |
| 20260902165723 | 63 | 190 | 11.0 | 16.0 | 0.00 | 0.00 | 0.00 | 92 | |
| 20260902165602 | 63 | 190 | 10.0 | 16.0 | 0.00 | 0.00 | 0.00 | 93 | |
| 20260902165502 | 63 | 189 | 10.0 | 15.0 | 0.00 | 0.00 | 0.00 | 92 | |
| 20260902165402 | 63 | 188 | 10.0 | 15.0 | 0.00 | 0.00 | 0.00 | 92 | |
| 20260902165323 | 63 | 188 | 10.0 | 15.0 | 0.00 | 0.00 | 0.00 | 92 | |
| 20260902165202 | 63 | 188 | 10.0 | 15.0 | 0.00 | 0.00 | 0.00 | 92 | |
| 20260902165102 | 63 | 187 | 10.0 | 16.0 | 0.00 | 0.00 | 0.00 | 92 | |
| 20260902165002 | 63 | 186 | 10.0 | 16.0 | 0.00 | 0.00 | 0.00 | 92 | |
| 20260902164902 | 63 | 187 | 10.0 | 16.0 | 0.00 | 0.00 | 0.00 | 92 | |
| 20260902164802 | 62 | 187 | 10.0 | 16.0 | 0.00 | 0.00 | 0.00 | 92 | |
| 20260902164702 | 62 | 186 | 9.0 | 16.0 | 0.00 | 0.00 | 0.00 | 93 | |
| 20260902164602 | 62 | 186 | 9.0 | 16.0 | 0.00 | 0.00 | 0.00 | 92 | |
| 20260902164502 | 62 | 186 | 9.0 | 16.0 | 0.00 | 0.00 | 0.00 | 92 | |
| 20260902164402 | 62 | 186 | 9.0 | 16.0 | 0.00 | 0.00 | 0.00 | 93 | |
| 20260902164323 | 62 | 185 | 9.0 | 16.0 | 0.00 | 0.00 | 0.00 | 93 | |
| 20260902164202 | 62 | 183 | 9.0 | 16.0 | 0.00 | 0.00 | 0.00 | 93 | |
| 20260902164102 | 62 | 181 | 9.0 | 15.0 | 0.00 | 0.00 | 0.00 | 93 | |
| 20260902164002 | 62 | 182 | 9.0 | 15.0 | 0.00 | 0.00 | 0.00 | 92 | |
| 20260902163902 | 62 | 180 | 9.0 | 15.0 | 0.00 | 0.00 | 0.00 | 92 | |
| 20260902163802 | 62 | 180 | 9.0 | 15.0 | 0.00 | 0.00 | 0.00 | 92 | |
| 20260902163702 | 62 | 180 | 9.0 | 15.0 | 0.00 | 0.00 | 0.00 | 92 | |
| 20260902163602 | 62 | 179 | 9.0 | 15.0 | 0.00 | 0.00 | 0.00 | 92 | |
| 20260902163502 | 62 | 180 | 9.0 | 15.0 | 0.00 | 0.00 | 0.00 | 92 | |
| 20260902163402 | 62 | 180 | 9.0 | 15.0 | 0.00 | 0.00 | 0.00 | 92 | |
| 20260902163302 | 62 | 178 | 9.0 | 15.0 | 0.00 | 0.00 | 0.00 | 92 | |
| 20260902163202 | 62 | 178 | 9.0 | 15.0 | 0.00 | 0.00 | 0.00 | 92 | |
| 20260902163102 | 62 | 179 | 9.0 | 15.0 | 0.00 | 0.00 | 0.00 | 92 | |
| 20260902163003 | 62 | 179 | 8.0 | 15.0 | 0.00 | 0.00 | 0.00 | 92 | |
| 20260902162924 | 62 | 179 | 8.0 | 15.0 | 0.00 | 0.00 | 0.00 | 92 | |
| 20260902162802 | 62 | 179 | 8.0 | 15.0 | 0.00 | 0.00 | 0.00 | 93 | |
| 20260902162723 | 62 | 180 | 8.0 | 15.0 | 0.00 | 0.00 | 0.00 | 93 | |
| 20260902162602 | 62 | 182 | 8.0 | 13.0 | 0.00 | 0.00 | 0.00 | 93 | |
| 20260902162523 | 62 | 182 | 8.0 | 13.0 | 0.00 | 0.00 | 0.00 | 93 | |
| 20260902162402 | 62 | 183 | 8.0 | 13.0 | 0.00 | 0.00 | 0.00 | 93 | |
| 20260902162306 | 62 | 184 | 8.0 | 13.0 | 0.00 | 0.00 | 0.00 | 93 | |
| 20260902162202 | 62 | 184 | 8.0 | 13.0 | 0.00 | 0.00 | 0.00 | 93 | |
| 20260902162123 | 62 | 185 | 8.0 | 13.0 | 0.00 | 0.00 | 0.00 | 93 | |
| 20260902162002 | 62 | 185 | 8.0 | 14.0 | 0.00 | 0.00 | 0.00 | 93 | |
| 20260902161923 | 62 | 185 | 8.0 | 14.0 | 0.00 | 0.00 | 0.00 | 93 | |
| 20260902161802 | 62 | 185 | 9.0 | 15.0 | 0.00 | 0.00 | 0.00 | 93 | |
| 20260902161702 | 62 | 185 | 9.0 | 15.0 | 0.00 | 0.00 | 0.00 | 93 | |
| 20260902161602 | 62 | 184 | 9.0 | 15.0 | 0.00 | 0.00 | 0.00 | 93 | |
| 20260902161502 | 62 | 185 | 9.0 | 15.0 | 0.00 | 0.00 | 0.00 | 93 | |
| 20260902161402 | 62 | 184 | 9.0 | 15.0 | 0.00 | 0.00 | 0.00 | 93 | |
| 20260902161302 | 62 | 185 | 9.0 | 15.0 | 0.00 | 0.00 | 0.00 | 92 | |
| 20260902161202 | 62 | 184 | 9.0 | 15.0 | 0.00 | 0.00 | 0.00 | 93 | |
| 20260902161123 | 62 | 185 | 10.0 | 15.0 | 0.00 | 0.00 | 0.00 | 93 | |
| 20260902161002 | 62 | 185 | 10.0 | 15.0 | 0.00 | 0.00 | 0.00 | 93 | |
| 20260902160923 | 62 | 185 | 10.0 | 15.0 | 0.00 | 0.00 | 0.00 | 93 | |
| 20260902160802 | 62 | 185 | 10.0 | 15.0 | 0.00 | 0.00 | 0.00 | 92 | |
| 20260902160702 | 62 | 186 | 10.0 | 15.0 | 0.00 | 0.00 | 0.00 | 93 | |
| 20260902160602 | 62 | 186 | 10.0 | 15.0 | 0.00 | 0.00 | 0.00 | 92 | |
| 20260902160502 | 62 | 185 | 9.0 | 14.0 | 0.00 | 0.00 | 0.00 | 92 | |
| 20260902160402 | 62 | 185 | 9.0 | 14.0 | 0.00 | 0.00 | 0.00 | 92 | |
| 20260902160302 | 62 | 184 | 9.0 | 14.0 | 0.00 | 0.00 | 0.00 | 92 | |
| 20260902160202 | 62 | 184 | 9.0 | 15.0 | 0.00 | 0.00 | 0.00 | 92 | |
| 20260902160003 | 62 | 184 | 9.0 | 15.0 | 0.00 | 0.00 | 0.00 | 93 | |
| 20260902155903 | 62 | 183 | 9.0 | 15.0 | 0.00 | 0.00 | 0.00 | 92 | |
| 20260902155823 | 61 | 183 | 9.0 | 15.0 | 0.00 | 0.00 | 0.00 | 92 | |
| 20260902155702 | 61 | 182 | 9.0 | 15.0 | 0.00 | 0.00 | 0.00 | 92 | |
| 20260902155623 | 61 | 182 | 9.0 | 15.0 | 0.00 | 0.00 | 0.00 | 92 | |
| 20260902155502 | 62 | 182 | 9.0 | 16.0 | 0.00 | 0.00 | 0.00 | 92 | |
| 20260902155402 | 62 | 183 | 10.0 | 16.0 | 0.00 | 0.00 | 0.00 | 92 | |
| 20260902155302 | 61 | 183 | 10.0 | 16.0 | 0.00 | 0.00 | 0.00 | 92 | |
| 20260902155223 | 62 | 183 | 10.0 | 16.0 | 0.00 | 0.00 | 0.00 | 92 | |
| 20260902155102 | 61 | 183 | 10.0 | 16.0 | 0.00 | 0.00 | 0.00 | 92 | |
| 20260902155002 | 61 | 184 | 10.0 | 16.0 | 0.00 | 0.00 | 0.00 | 92 | |
| 20260902154902 | 61 | 185 | 10.0 | 16.0 | 0.00 | 0.00 | 0.00 | 92 | |
| 20260902154802 | 61 | 186 | 10.0 | 16.0 | 0.00 | 0.00 | 0.00 | 92 | |
| 20260902154702 | 62 | 187 | 10.0 | 16.0 | 0.00 | 0.00 | 0.00 | 92 | |
| 20260902154623 | 62 | 188 | 10.0 | 16.0 | 0.00 | 0.00 | 0.00 | 92 | |
| 20260902154502 | 62 | 189 | 10.0 | 15.0 | 0.00 | 0.00 | 0.00 | 92 | |
| 20260902154402 | 62 | 188 | 10.0 | 15.0 | 0.00 | 0.00 | 0.00 | 92 | |
| 20260902154302 | 62 | 189 | 10.0 | 15.0 | 0.00 | 0.00 | 0.00 | 92 | |
| 20260902154202 | 62 | 189 | 9.0 | 15.0 | 0.00 | 0.00 | 0.00 | 92 | |
| 20260902154102 | 62 | 189 | 9.0 | 15.0 | 0.00 | 0.00 | 0.00 | 92 | |
| 20260902154023 | 62 | 188 | 9.0 | 15.0 | 0.00 | 0.00 | 0.00 | 92 | |
| 20260902153902 | 62 | 188 | 8.0 | 15.0 | 0.00 | 0.00 | 0.00 | 92 | |
| 20260902153802 | 62 | 187 | 8.0 | 15.0 | 0.00 | 0.00 | 0.00 | 92 | |
| 20260902153702 | 62 | 186 | 8.0 | 15.0 | 0.00 | 0.00 | 0.00 | 92 | |
| 20260902153602 | 62 | 185 | 8.0 | 12.0 | 0.00 | 0.00 | 0.00 | 92 | |
| 20260902153502 | 62 | 184 | 8.0 | 14.0 | 0.00 | 0.00 | 0.00 | 92 | |
| 20260902153402 | 62 | 184 | 8.0 | 14.0 | 0.00 | 0.00 | 0.00 | 92 | |
| 20260902153302 | 62 | 184 | 8.0 | 14.0 | 0.00 | 0.00 | 0.00 | 92 | |
| 20260902153202 | 62 | 184 | 8.0 | 14.0 | 0.00 | 0.00 | 0.00 | 92 | |
| 20260902153102 | 62 | 185 | 8.0 | 14.0 | 0.00 | 0.00 | 0.00 | 92 | |
| 20260902153002 | 62 | 186 | 9.0 | 15.0 | 0.00 | 0.00 | 0.00 | 92 | |
| 20260902152902 | 62 | 188 | 10.0 | 18.0 | 0.00 | 0.00 | 0.00 | 92 | |
| 20260902152802 | 62 | 190 | 10.0 | 18.0 | 0.00 | 0.00 | 0.00 | 92 | |
| 20260902152702 | 62 | 192 | 11.0 | 18.0 | 0.00 | 0.00 | 0.00 | 92 | |
| 20260902152602 | 62 | 192 | 11.0 | 19.0 | 0.00 | 0.00 | 0.00 | 92 | |
| 20260902152502 | 62 | 193 | 12.0 | 19.0 | 0.00 | 0.00 | 0.00 | 92 | |
| 20260902152402 | 62 | 194 | 12.0 | 19.0 | 0.00 | 0.00 | 0.00 | 91 | |
| 20260902152307 | 62 | 195 | 13.0 | 19.0 | 0.00 | 0.00 | 0.00 | 91 | |
| 20260902152202 | 62 | 195 | 13.0 | 19.0 | 0.00 | 0.00 | 0.00 | 91 | |
| 20260902152102 | 62 | 195 | 13.0 | 19.0 | 0.00 | 0.00 | 0.00 | 91 | |
| 20260902152023 | 62 | 194 | 13.0 | 19.0 | 0.00 | 0.00 | 0.00 | 91 | |
| 20260902151902 | 62 | 194 | 12.0 | 19.0 | 0.00 | 0.00 | 0.00 | 91 | |
| 20260902151802 | 62 | 193 | 12.0 | 19.0 | 0.00 | 0.00 | 0.00 | 91 | |
| 20260902151702 | 62 | 193 | 12.0 | 19.0 | 0.00 | 0.00 | 0.00 | 91 | |
| 20260902151602 | 62 | 193 | 12.0 | 19.0 | 0.00 | 0.00 | 0.00 | 91 | |
| 20260902151523 | 62 | 194 | 12.0 | 19.0 | 0.00 | 0.00 | 0.00 | 91 | |
| 20260902151423 | 62 | 194 | 12.0 | 19.0 | 0.00 | 0.00 | 0.00 | 90 | |
| 20260902151303 | 62 | 193 | 11.0 | 19.0 | 0.00 | 0.00 | 0.00 | 91 | |
| 20260902151202 | 63 | 194 | 11.0 | 19.0 | 0.00 | 0.00 | 0.00 | 91 | |
| 20260902151102 | 63 | 194 | 11.0 | 19.0 | 0.00 | 0.00 | 0.00 | 91 | |
| 20260902151002 | 63 | 195 | 11.0 | 19.0 | 0.00 | 0.00 | 0.00 | 91 | |
| 20260902150903 | 63 | 196 | 12.0 | 19.0 | 0.00 | 0.00 | 0.00 | 90 | |
| 20260902150802 | 63 | 196 | 11.0 | 19.0 | 0.00 | 0.00 | 0.00 | 90 | |
| 20260902150723 | 63 | 195 | 11.0 | 19.0 | 0.00 | 0.00 | 0.00 | 90 | |
| 20260902150602 | 63 | 195 | 11.0 | 19.0 | 0.00 | 0.00 | 0.00 | 90 | |
| 20260902150502 | 63 | 195 | 12.0 | 19.0 | 0.00 | 0.00 | 0.00 | 90 | |
| 20260902150402 | 63 | 194 | 12.0 | 19.0 | 0.00 | 0.00 | 0.00 | 90 | |
| 20260902150302 | 63 | 194 | 13.0 | 20.0 | 0.00 | 0.00 | 0.00 | 89 | |
| 20260902150202 | 63 | 194 | 13.0 | 20.0 | 0.00 | 0.00 | 0.00 | 89 | |
| 20260902150123 | 63 | 194 | 13.0 | 20.0 | 0.00 | 0.00 | 0.00 | 89 | |
| 20260902150002 | 63 | 193 | 13.0 | 20.0 | 0.00 | 0.00 | 0.00 | 88 | |
| 20260902145902 | 63 | 192 | 13.0 | 20.0 | 0.00 | 0.00 | 0.00 | 88 | |
| 20260902145802 | 63 | 192 | 13.0 | 20.0 | 0.00 | 0.00 | 0.00 | 88 | |
| 20260902145702 | 63 | 192 | 13.0 | 20.0 | 0.00 | 0.00 | 0.00 | 87 | |
| 20260902145602 | 63 | 192 | 13.0 | 20.0 | 0.00 | 0.00 | 0.00 | 87 | |
| 20260902145502 | 63 | 193 | 13.0 | 20.0 | 0.00 | 0.00 | 0.00 | 87 | |
| 20260902145402 | 63 | 194 | 13.0 | 20.0 | 0.00 | 0.00 | 0.00 | 87 | |
| 20260902145305 | 64 | 194 | 13.0 | 20.0 | 0.00 | 0.00 | 0.00 | 87 | |
| 20260902145203 | 64 | 194 | 13.0 | 20.0 | 0.00 | 0.00 | 0.00 | 86 | |
| 20260902145102 | 64 | 193 | 13.0 | 20.0 | 0.00 | 0.00 | 0.00 | 86 | |
| 20260902145002 | 64 | 192 | 13.0 | 20.0 | 0.00 | 0.00 | 0.00 | 85 | |
| 20260902144902 | 64 | 193 | 13.0 | 20.0 | 0.00 | 0.00 | 0.00 | 85 | |
| 20260902144802 | 64 | 194 | 13.0 | 20.0 | 0.00 | 0.00 | 0.00 | 85 | |
| 20260902144702 | 64 | 195 | 13.0 | 20.0 | 0.00 | 0.00 | 0.00 | 84 | |
| 20260902144602 | 64 | 194 | 14.0 | 20.0 | 0.00 | 0.00 | 0.00 | 84 | |
| 20260902144523 | 64 | 194 | 14.0 | 20.0 | 0.00 | 0.00 | 0.00 | 84 | |
| 20260902144402 | 64 | 193 | 14.0 | 20.0 | 0.00 | 0.00 | 0.00 | 83 | |
| 20260902144302 | 64 | 193 | 14.0 | 21.0 | 0.00 | 0.00 | 0.00 | 83 | |
| 20260902144202 | 64 | 193 | 14.0 | 21.0 | 0.00 | 0.00 | 0.00 | 83 | |
| 20260902144103 | 65 | 193 | 14.0 | 21.0 | 0.00 | 0.00 | 0.00 | 83 | |
| 20260902144002 | 65 | 194 | 14.0 | 21.0 | 0.00 | 0.00 | 0.00 | 83 | |
| 20260902143902 | 65 | 194 | 13.0 | 21.0 | 0.00 | 0.00 | 0.00 | 83 | |
| 20260902143802 | 65 | 193 | 13.0 | 21.0 | 0.00 | 0.00 | 0.00 | 82 | |
| 20260902143702 | 65 | 192 | 14.0 | 21.0 | 0.00 | 0.00 | 0.00 | 82 | |
| 20260902143623 | 65 | 192 | 14.0 | 21.0 | 0.00 | 0.00 | 0.00 | 82 | |
| 20260902143502 | 64 | 192 | 14.0 | 21.0 | 0.00 | 0.00 | 0.00 | 82 | |
| 20260902143402 | 64 | 193 | 15.0 | 21.0 | 0.00 | 0.00 | 0.00 | 82 | |
| 20260902143302 | 64 | 193 | 15.0 | 22.0 | 0.00 | 0.00 | 0.00 | 83 | |
| 20260902143202 | 64 | 193 | 15.0 | 22.0 | 0.00 | 0.00 | 0.00 | 83 | |
| 20260902143123 | 64 | 193 | 15.0 | 22.0 | 0.00 | 0.00 | 0.00 | 83 | |
| 20260902143002 | 64 | 194 | 15.0 | 22.0 | 0.00 | 0.00 | 0.00 | 83 | |
| 20260902142902 | 64 | 194 | 16.0 | 22.0 | 0.00 | 0.00 | 0.00 | 83 | |
| 20260902142802 | 64 | 195 | 16.0 | 22.0 | 0.00 | 0.00 | 0.00 | 83 | |
| 20260902142704 | 64 | 196 | 16.0 | 22.0 | 0.00 | 0.00 | 0.00 | 83 | |
| 20260902142602 | 64 | 197 | 16.0 | 22.0 | 0.00 | 0.00 | 0.00 | 83 | |
| 20260902142502 | 64 | 197 | 16.0 | 22.0 | 0.00 | 0.00 | 0.00 | 83 | |
| 20260902142402 | 64 | 198 | 16.0 | 23.0 | 0.00 | 0.00 | 0.00 | 83 | |
| 20260902142305 | 64 | 199 | 16.0 | 23.0 | 0.00 | 0.00 | 0.00 | 83 | |
| 20260902142202 | 64 | 200 | 16.0 | 23.0 | 0.00 | 0.00 | 0.00 | 83 | |
| 20260902142102 | 64 | 201 | 16.0 | 23.0 | 0.00 | 0.00 | 0.00 | 83 | |
| 20260902142002 | 64 | 203 | 16.0 | 23.0 | 0.00 | 0.00 | 0.00 | 82 | |
| 20260902141902 | 64 | 203 | 15.0 | 23.0 | 0.00 | 0.00 | 0.00 | 82 | |
| 20260902141802 | 65 | 204 | 15.0 | 23.0 | 0.00 | 0.00 | 0.00 | 82 | |
| 20260902141723 | 65 | 205 | 15.0 | 23.0 | 0.00 | 0.00 | 0.00 | 82 | |
| 20260902141602 | 65 | 206 | 15.0 | 23.0 | 0.00 | 0.00 | 0.00 | 80 |